| time (UTC) | temp C | wind direction | speed KPH | gust KPH | rain 1hr cm | rain 24hr cm | rain mn cm | humidity % | barometer mb |
| 20260509000105 | 26 | 114 | 3.2 | 8.0 | 0.00 | 0.00 | 0.00 | 22 | 1014.8 |
| 20260509000007 | 26 | 260 | 3.2 | 8.0 | 0.00 | 0.00 | 0.00 | 23 | 1014.9 |
| 20260508235905 | 26 | 279 | 3.2 | 8.0 | 0.00 | 0.00 | 0.00 | 24 | 1014.9 |
| 20260508235804 | 26 | 144 | 3.2 | 6.4 | 0.00 | 0.00 | 0.00 | 23 | 1015.0 |
| 20260508235704 | 26 | 303 | 1.6 | 6.4 | 0.00 | 0.00 | 0.00 | 22 | 1015.0 |
| 20260508235604 | 26 | 248 | 1.6 | 6.4 | 0.00 | 0.00 | 0.00 | 23 | 1015.0 |
| 20260508235504 | 26 | 173 | 1.6 | 6.4 | 0.00 | 0.00 | 0.00 | 24 | 1015.2 |
| 20260508235404 | 26 | 191 | 1.6 | 6.4 | 0.00 | 0.00 | 0.00 | 22 | 1015.2 |
| 20260508235204 | 26 | 69 | 1.6 | 4.8 | 0.00 | 0.00 | 0.00 | 23 | 1015.2 |
| 20260508235006 | 26 | 88 | 1.6 | 4.8 | 0.00 | 0.00 | 0.00 | 22 | 1015.1 |
| 20260508234905 | 26 | 221 | 1.6 | 3.2 | 0.00 | 0.00 | 0.00 | 22 | 1015.1 |
| 20260508234805 | 26 | 223 | 1.6 | 8.0 | 0.00 | 0.00 | 0.00 | 22 | 1015.1 |
| 20260508234704 | 26 | 196 | 1.6 | 8.0 | 0.00 | 0.00 | 0.00 | 23 | 1015.2 |
| 20260508234504 | 26 | 208 | 1.6 | 8.0 | 0.00 | 0.00 | 0.00 | 24 | 1015.2 |
| 20260508234404 | 26 | 225 | 3.2 | 8.0 | 0.00 | 0.00 | 0.00 | 24 | 1015.1 |
| 20260508234304 | 25 | 278 | 3.2 | 8.0 | 0.00 | 0.00 | 0.00 | 23 | 1015.2 |
| 20260508234204 | 25 | 68 | 3.2 | 8.0 | 0.00 | 0.00 | 0.00 | 24 | 1015.2 |
| 20260508234005 | 26 | 85 | 3.2 | 11.3 | 0.00 | 0.00 | 0.00 | 23 | 1015.1 |
| 20260508233905 | 26 | 82 | 3.2 | 11.3 | 0.00 | 0.00 | 0.00 | 24 | 1015.2 |
| 20260508233804 | 26 | 159 | 3.2 | 11.3 | 0.00 | 0.00 | 0.00 | 22 | 1015.1 |
| 20260508233604 | 26 | 225 | 3.2 | 11.3 | 0.00 | 0.00 | 0.00 | 23 | 1015.1 |
| 20260508233504 | 26 | 143 | 3.2 | 11.3 | 0.00 | 0.00 | 0.00 | 22 | 1015.1 |
| 20260508233404 | 26 | 295 | 3.2 | 11.3 | 0.00 | 0.00 | 0.00 | 21 | 1015.1 |
| 20260508233305 | 26 | 149 | 3.2 | 11.3 | 0.00 | 0.00 | 0.00 | 21 | 1015.1 |
| 20260508233205 | 26 | 166 | 3.2 | 8.0 | 0.00 | 0.00 | 0.00 | 23 | 1015.1 |
| 20260508233104 | 26 | 227 | 3.2 | 8.0 | 0.00 | 0.00 | 0.00 | 23 | 1015.1 |
| 20260508232904 | 26 | 211 | 3.2 | 8.0 | 0.00 | 0.00 | 0.00 | 22 | 1015.1 |
| 20260508232804 | 26 | 179 | 3.2 | 6.4 | 0.00 | 0.00 | 0.00 | 23 | 1015.0 |
| 20260508232705 | 26 | 196 | 3.2 | 6.4 | 0.00 | 0.00 | 0.00 | 23 | 1015.0 |
| 20260508232604 | 26 | 265 | 3.2 | 6.4 | 0.00 | 0.00 | 0.00 | 23 | 1015.1 |
| 20260508232505 | 26 | 221 | 1.6 | 6.4 | 0.00 | 0.00 | 0.00 | 22 | 1015.2 |
| 20260508232405 | 26 | 121 | 1.6 | 6.4 | 0.00 | 0.00 | 0.00 | 24 | 1015.2 |
| 20260508232307 | 26 | 140 | 1.6 | 6.4 | 0.00 | 0.00 | 0.00 | 23 | 1015.2 |
| 20260508232205 | 26 | 158 | 3.2 | 6.4 | 0.00 | 0.00 | 0.00 | 23 | 1015.2 |
| 20260508232105 | 26 | 161 | 1.6 | 6.4 | 0.00 | 0.00 | 0.00 | 23 | 1015.2 |
| 20260508232006 | 26 | 168 | 1.6 | 6.4 | 0.00 | 0.00 | 0.00 | 23 | 1015.1 |
| 20260508231905 | 26 | 244 | 1.6 | 4.8 | 0.00 | 0.00 | 0.00 | 22 | 1015.2 |
| 20260508231805 | 26 | 236 | 1.6 | 4.8 | 0.00 | 0.00 | 0.00 | 23 | 1015.2 |
| 20260508231705 | 26 | 219 | 3.2 | 4.8 | 0.00 | 0.00 | 0.00 | 22 | 1015.2 |
| 20260508231606 | 26 | 310 | 3.2 | 9.7 | 0.00 | 0.00 | 0.00 | 22 | 1015.1 |
| 20260508231505 | 26 | 284 | 3.2 | 9.7 | 0.00 | 0.00 | 0.00 | 22 | 1015.2 |
| 20260508231306 | 26 | 250 | 3.2 | 9.7 | 0.00 | 0.00 | 0.00 | 23 | 1015.3 |
| 20260508231206 | 26 | 216 | 3.2 | 9.7 | 0.00 | 0.00 | 0.00 | 24 | 1015.2 |
| 20260508231006 | 26 | 221 | 3.2 | 9.7 | 0.00 | 0.00 | 0.00 | 23 | 1015.2 |
| 20260508230906 | 25 | 292 | 3.2 | 9.7 | 0.00 | 0.00 | 0.00 | 24 | 1015.2 |
| 20260508230706 | 25 | 288 | 3.2 | 12.9 | 0.00 | 0.00 | 0.00 | 23 | 1015.3 |
| 20260508230606 | 25 | 253 | 3.2 | 12.9 | 0.00 | 0.00 | 0.00 | 23 | 1015.2 |
| 20260508230505 | 25 | 139 | 3.2 | 12.9 | 0.00 | 0.00 | 0.00 | 23 | 1015.2 |
| 20260508230404 | 25 | 230 | 3.2 | 11.3 | 0.00 | 0.00 | 0.00 | 25 | 1015.3 |
| 20260508230105 | 25 | 123 | 3.2 | 11.3 | 0.00 | 0.00 | 0.00 | 22 | 1015.2 |
| 20260508230005 | 25 | 50 | 3.2 | 11.3 | 0.00 | 0.00 | 0.00 | 23 | 1015.3 |
| 20260508225904 | 25 | 105 | 3.2 | 11.3 | 0.00 | 0.00 | 0.00 | 24 | 1015.3 |
| 20260508225804 | 25 | 178 | 3.2 | 11.3 | 0.00 | 0.00 | 0.00 | 23 | 1015.3 |
| 20260508225704 | 25 | 207 | 3.2 | 11.3 | 0.00 | 0.00 | 0.00 | 23 | 1015.3 |
| 20260508225604 | 25 | 199 | 3.2 | 11.3 | 0.00 | 0.00 | 0.00 | 23 | 1015.3 |
| 20260508225505 | 25 | 228 | 1.6 | 11.3 | 0.00 | 0.00 | 0.00 | 24 | 1015.3 |
| 20260508225405 | 25 | 157 | 1.6 | 9.7 | 0.00 | 0.00 | 0.00 | 23 | 1015.3 |
| 20260508225307 | 25 | 44 | 1.6 | 9.7 | 0.00 | 0.00 | 0.00 | 23 | 1015.3 |
| 20260508225206 | 25 | 145 | 3.2 | 9.7 | 0.00 | 0.00 | 0.00 | 23 | 1015.3 |
| 20260508225104 | 25 | 161 | 3.2 | 9.7 | 0.00 | 0.00 | 0.00 | 24 | 1015.4 |
| 20260508224902 | 25 | 239 | 3.2 | 8.0 | 0.00 | 0.00 | 0.00 | 24 | 1015.4 |
| 20260508224844 | 25 | 221 | 3.2 | 8.0 | 0.00 | 0.00 | 0.00 | 24 | 1015.4 |
| 20260508224625 | 25 | 125 | 3.2 | 9.7 | 0.00 | 0.00 | 0.00 | 26 | 1015.4 |
| 20260508224503 | 25 | 125 | 4.8 | 9.7 | 0.00 | 0.00 | 0.00 | 23 | 1015.4 |
| 20260508224403 | 25 | 86 | 4.8 | 12.9 | 0.00 | 0.00 | 0.00 | 27 | 1015.4 |
| 20260508224330 | 25 | 91 | 4.8 | 12.9 | 0.00 | 0.00 | 0.00 | 27 | 1015.4 |
| 20260508224220 | 24 | 78 | 4.8 | 12.9 | 0.00 | 0.00 | 0.00 | 24 | 1015.4 |
| 20260508224109 | 25 | 48 | 3.2 | 12.9 | 0.00 | 0.00 | 0.00 | 24 | 1015.6 |
| 20260508224004 | 25 | 96 | 3.2 | 12.9 | 0.00 | 0.00 | 0.00 | 25 | 1015.5 |
| 20260508223902 | 25 | 42 | 3.2 | 12.9 | 0.00 | 0.00 | 0.00 | 24 | 1015.6 |
| 20260508223851 | 25 | 68 | 3.2 | 12.9 | 0.00 | 0.00 | 0.00 | 24 | 1015.6 |
| 20260508223741 | 25 | 95 | 3.2 | 12.9 | 0.00 | 0.00 | 0.00 | 26 | 1015.6 |
| 20260508223403 | 25 | 100 | 1.6 | 9.7 | 0.00 | 0.00 | 0.00 | 22 | 1015.6 |
| 20260508223304 | 25 | 100 | 1.6 | 8.0 | 0.00 | 0.00 | 0.00 | 23 | 1015.6 |
| 20260508223203 | 25 | 143 | 3.2 | 8.0 | 0.00 | 0.00 | 0.00 | 23 | 1015.7 |
| 20260508222934 | 25 | 248 | 1.6 | 8.0 | 0.00 | 0.00 | 0.00 | 25 | 1015.8 |
| 20260508222802 | 25 | 19 | 3.2 | 6.4 | 0.00 | 0.00 | 0.00 | 24 | 1015.7 |
| 20260508222734 | 25 | 331 | 3.2 | 6.4 | 0.00 | 0.00 | 0.00 | 24 | 1015.7 |
| 20260508222625 | 25 | 148 | 3.2 | 8.0 | 0.00 | 0.00 | 0.00 | 22 | 1015.8 |
| 20260508222514 | 25 | 137 | 3.2 | 8.0 | 0.00 | 0.00 | 0.00 | 24 | 1015.8 |
| 20260508222405 | 25 | 217 | 3.2 | 8.0 | 0.00 | 0.00 | 0.00 | 25 | 1015.9 |
| 20260508222306 | 25 | 315 | 3.2 | 8.0 | 0.00 | 0.00 | 0.00 | 24 | 1015.9 |
| 20260508222102 | 25 | 254 | 3.2 | 9.7 | 0.00 | 0.00 | 0.00 | 24 | 1015.9 |
| 20260508222046 | 25 | 274 | 3.2 | 9.7 | 0.00 | 0.00 | 0.00 | 24 | 1015.9 |
| 20260508221803 | 25 | 326 | 3.2 | 9.7 | 0.00 | 0.00 | 0.00 | 23 | 1016.0 |
| 20260508221703 | 25 | 256 | 3.2 | 9.7 | 0.00 | 0.00 | 0.00 | 24 | 1016.0 |
| 20260508221603 | 25 | 275 | 3.2 | 9.7 | 0.00 | 0.00 | 0.00 | 22 | 1016.0 |
| 20260508221547 | 25 | 265 | 3.2 | 9.7 | 0.00 | 0.00 | 0.00 | 22 | 1016.0 |
| 20260508221438 | 25 | 328 | 3.2 | 9.7 | 0.00 | 0.00 | 0.00 | 23 | 1016.2 |
| 20260508221303 | 25 | 91 | 3.2 | 12.9 | 0.00 | 0.00 | 0.00 | 23 | 1016.0 |
| 20260508221202 | 25 | 223 | 3.2 | 12.9 | 0.00 | 0.00 | 0.00 | 22 | 1016.1 |
| 20260508221102 | 25 | 149 | 4.8 | 12.9 | 0.00 | 0.00 | 0.00 | 25 | 1016.2 |
| 20260508221003 | 25 | 151 | 4.8 | 12.9 | 0.00 | 0.00 | 0.00 | 23 | 1016.2 |
| 20260508220902 | 25 | 218 | 3.2 | 12.9 | 0.00 | 0.00 | 0.00 | 25 | 1016.2 |
| 20260508220802 | 25 | 231 | 3.2 | 12.9 | 0.00 | 0.00 | 0.00 | 25 | 1016.3 |
| 20260508220702 | 25 | 161 | 3.2 | 12.9 | 0.00 | 0.00 | 0.00 | 24 | 1016.2 |
| 20260508220620 | 25 | 168 | 3.2 | 12.9 | 0.00 | 0.00 | 0.00 | 24 | 1016.2 |
| 20260508220510 | 25 | 217 | 3.2 | 12.9 | 0.00 | 0.00 | 0.00 | 23 | 1016.3 |
| 20260508220404 | 25 | 246 | 3.2 | 12.9 | 0.00 | 0.00 | 0.00 | 23 | 1016.4 |
| 20260508220205 | 25 | 188 | 3.2 | 8.0 | 0.00 | 0.00 | 0.00 | 25 | 1016.3 |
| 20260508215904 | 25 | 214 | 1.6 | 8.0 | 0.00 | 0.00 | 0.00 | 24 | 1016.4 |
| 20260508215804 | 25 | 276 | 1.6 | 8.0 | 0.00 | 0.00 | 0.00 | 22 | 1016.5 |
| 20260508215705 | 25 | 246 | 3.2 | 8.0 | 0.00 | 0.00 | 0.00 | 22 | 1016.4 |
| 20260508215504 | 25 | 245 | 1.6 | 9.7 | 0.00 | 0.00 | 0.00 | 25 | 1016.4 |
| 20260508215404 | 25 | 92 | 3.2 | 9.7 | 0.00 | 0.00 | 0.00 | 24 | 1016.5 |
| 20260508215306 | 25 | 156 | 3.2 | 9.7 | 0.00 | 0.00 | 0.00 | 24 | 1016.5 |
| 20260508215105 | 25 | 112 | 3.2 | 9.7 | 0.00 | 0.00 | 0.00 | 26 | 1016.5 |
| 20260508214904 | 25 | 145 | 3.2 | 9.7 | 0.00 | 0.00 | 0.00 | 23 | 1016.5 |
| 20260508214804 | 25 | 169 | 3.2 | 9.7 | 0.00 | 0.00 | 0.00 | 24 | 1016.5 |
| 20260508214705 | 25 | 244 | 3.2 | 8.0 | 0.00 | 0.00 | 0.00 | 24 | 1016.6 |
| 20260508214604 | 25 | 264 | 3.2 | 8.0 | 0.00 | 0.00 | 0.00 | 25 | 1016.6 |
| 20260508214504 | 25 | 262 | 3.2 | 8.0 | 0.00 | 0.00 | 0.00 | 23 | 1016.5 |
| 20260508214404 | 25 | 233 | 3.2 | 8.0 | 0.00 | 0.00 | 0.00 | 24 | 1016.5 |
| 20260508214304 | 25 | 310 | 3.2 | 8.0 | 0.00 | 0.00 | 0.00 | 24 | 1016.6 |
| 20260508214205 | 25 | 252 | 3.2 | 8.0 | 0.00 | 0.00 | 0.00 | 24 | 1016.5 |
| 20260508213904 | 25 | 212 | 3.2 | 9.7 | 0.00 | 0.00 | 0.00 | 24 | 1016.6 |
| 20260508213805 | 25 | 227 | 3.2 | 8.0 | 0.00 | 0.00 | 0.00 | 23 | 1016.6 |
| 20260508213604 | 25 | 114 | 3.2 | 8.0 | 0.00 | 0.00 | 0.00 | 23 | 1016.6 |
| 20260508213503 | 25 | 245 | 3.2 | 8.0 | 0.00 | 0.00 | 0.00 | 24 | 1016.8 |
| 20260508213404 | 25 | 336 | 3.2 | 8.0 | 0.00 | 0.00 | 0.00 | 24 | 1016.6 |
| 20260508213005 | 25 | 142 | 3.2 | 8.0 | 0.00 | 0.00 | 0.00 | 26 | 1016.8 |
| 20260508212804 | 25 | 129 | 3.2 | 11.3 | 0.00 | 0.00 | 0.00 | 23 | 1016.8 |
| 20260508212704 | 25 | 269 | 3.2 | 11.3 | 0.00 | 0.00 | 0.00 | 25 | 1016.8 |
| 20260508212604 | 25 | 163 | 3.2 | 11.3 | 0.00 | 0.00 | 0.00 | 26 | 1016.8 |
| 20260508212505 | 25 | 271 | 4.8 | 11.3 | 0.00 | 0.00 | 0.00 | 26 | 1016.9 |
| 20260508212404 | 25 | 222 | 4.8 | 11.3 | 0.00 | 0.00 | 0.00 | 25 | 1017.0 |
| 20260508212306 | 25 | 148 | 4.8 | 11.3 | 0.00 | 0.00 | 0.00 | 25 | 1016.9 |
| 20260508212204 | 25 | 317 | 4.8 | 11.3 | 0.00 | 0.00 | 0.00 | 25 | 1016.8 |
| 20260508212105 | 25 | 215 | 4.8 | 11.3 | 0.00 | 0.00 | 0.00 | 26 | 1017.0 |
| 20260508211804 | 25 | 150 | 3.2 | 9.7 | 0.00 | 0.00 | 0.00 | 26 | 1017.0 |
| 20260508211704 | 25 | 150 | 3.2 | 9.7 | 0.00 | 0.00 | 0.00 | 24 | 1017.0 |
| 20260508211606 | 25 | 211 | 3.2 | 9.7 | 0.00 | 0.00 | 0.00 | 25 | 1017.0 |
| 20260508211503 | 25 | 206 | 3.2 | 9.7 | 0.00 | 0.00 | 0.00 | 25 | 1017.0 |
| 20260508211404 | 25 | 213 | 3.2 | 8.0 | 0.00 | 0.00 | 0.00 | 24 | 1017.0 |
| 20260508211306 | 25 | 299 | 3.2 | 6.4 | 0.00 | 0.00 | 0.00 | 26 | 1017.0 |
| 20260508211204 | 25 | 256 | 3.2 | 6.4 | 0.00 | 0.00 | 0.00 | 23 | 1017.0 |
| 20260508211104 | 25 | 136 | 3.2 | 6.4 | 0.00 | 0.00 | 0.00 | 25 | 1017.0 |
| 20260508210905 | 25 | 142 | 3.2 | 9.7 | 0.00 | 0.00 | 0.00 | 25 | 1017.0 |
| 20260508210805 | 25 | 112 | 3.2 | 9.7 | 0.00 | 0.00 | 0.00 | 25 | 1017.0 |
| 20260508210605 | 25 | 229 | 3.2 | 9.7 | 0.00 | 0.00 | 0.00 | 25 | 1017.1 |
| 20260508210506 | 25 | 142 | 3.2 | 9.7 | 0.00 | 0.00 | 0.00 | 24 | 1017.0 |
| 20260508210406 | 25 | 223 | 3.2 | 9.7 | 0.00 | 0.00 | 0.00 | 25 | 1017.1 |
| 20260508210306 | 25 | 115 | 3.2 | 9.7 | 0.00 | 0.00 | 0.00 | 25 | 1017.1 |
| 20260508210106 | 25 | 221 | 1.6 | 6.4 | 0.00 | 0.00 | 0.00 | 28 | 1017.0 |
| 20260508210007 | 25 | 144 | 3.2 | 6.4 | 0.00 | 0.00 | 0.00 | 25 | 1017.0 |
| 20260508205905 | 24 | 237 | 3.2 | 11.3 | 0.00 | 0.00 | 0.00 | 26 | 1017.0 |
| 20260508205804 | 24 | 224 | 3.2 | 11.3 | 0.00 | 0.00 | 0.00 | 26 | 1017.0 |
| 20260508205606 | 24 | 150 | 4.8 | 14.5 | 0.00 | 0.00 | 0.00 | 26 | 1017.0 |
| 20260508205505 | 24 | 16 | 4.8 | 14.5 | 0.00 | 0.00 | 0.00 | 25 | 1017.0 |
| 20260508205404 | 24 | 250 | 4.8 | 14.5 | 0.00 | 0.00 | 0.00 | 26 | 1017.1 |
| 20260508205306 | 24 | 254 | 4.8 | 14.5 | 0.00 | 0.00 | 0.00 | 26 | 1017.0 |
| 20260508205204 | 24 | 139 | 4.8 | 14.5 | 0.00 | 0.00 | 0.00 | 24 | 1017.0 |
| 20260508205103 | 24 | 194 | 4.8 | 14.5 | 0.00 | 0.00 | 0.00 | 25 | 1017.0 |
| 20260508205005 | 24 | 126 | 4.8 | 14.5 | 0.00 | 0.00 | 0.00 | 24 | 1017.0 |
| 20260508204904 | 24 | 252 | 4.8 | 14.5 | 0.00 | 0.00 | 0.00 | 25 | 1017.1 |
| 20260508204805 | 24 | 247 | 3.2 | 14.5 | 0.00 | 0.00 | 0.00 | 23 | 1017.1 |
| 20260508204706 | 24 | 317 | 3.2 | 14.5 | 0.00 | 0.00 | 0.00 | 24 | 1017.0 |
| 20260508204606 | 24 | 249 | 3.2 | 11.3 | 0.00 | 0.00 | 0.00 | 25 | 1017.0 |
| 20260508204506 | 24 | 163 | 3.2 | 8.0 | 0.00 | 0.00 | 0.00 | 26 | 1017.0 |
| 20260508204405 | 25 | 340 | 3.2 | 8.0 | 0.00 | 0.00 | 0.00 | 24 | 1017.1 |
| 20260508204305 | 25 | 301 | 3.2 | 8.0 | 0.00 | 0.00 | 0.00 | 24 | 1017.1 |
| 20260508204210 | 25 | 303 | 3.2 | 8.0 | 0.00 | 0.00 | 0.00 | 25 | 1017.1 |
| 20260508204007 | 24 | 281 | 3.2 | 14.5 | 0.00 | 0.00 | 0.00 | 25 | 1017.2 |
| 20260508203902 | 24 | 125 | 4.8 | 14.5 | 0.00 | 0.00 | 0.00 | 26 | 1017.2 |
| 20260508203747 | 24 | 124 | 4.8 | 14.5 | 0.00 | 0.00 | 0.00 | 25 | 1017.3 |
| 20260508203637 | 24 | 265 | 4.8 | 14.5 | 0.00 | 0.00 | 0.00 | 26 | 1017.3 |
| 20260508203526 | 24 | 227 | 4.8 | 14.5 | 0.00 | 0.00 | 0.00 | 26 | 1017.1 |
| 20260508203416 | 24 | 162 | 4.8 | 14.5 | 0.00 | 0.00 | 0.00 | 24 | 1017.3 |
| 20260508203306 | 24 | 236 | 4.8 | 11.3 | 0.00 | 0.00 | 0.00 | 26 | 1017.3 |
| 20260508203203 | 24 | 229 | 3.2 | 9.7 | 0.00 | 0.00 | 0.00 | 24 | 1017.3 |
| 20260508203117 | 24 | 254 | 3.2 | 9.7 | 0.00 | 0.00 | 0.00 | 25 | 1017.2 |
| 20260508203049 | 24 | 333 | 3.2 | 9.7 | 0.00 | 0.00 | 0.00 | 25 | 1017.2 |
| 20260508202905 | 24 | 217 | 3.2 | 9.7 | 0.00 | 0.00 | 0.00 | 26 | 1017.3 |
| 20260508202843 | 25 | 134 | 3.2 | 9.7 | 0.00 | 0.00 | 0.00 | 26 | 1017.3 |
| 20260508202741 | 25 | 217 | 3.2 | 6.4 | 0.00 | 0.00 | 0.00 | 25 | 1017.1 |
| 20260508202505 | 24 | 177 | 4.8 | 16.1 | 0.00 | 0.00 | 0.00 | 24 | 1017.2 |
| 20260508202229 | 24 | 182 | 4.8 | 16.1 | 0.00 | 0.00 | 0.00 | 25 | 1017.1 |
| 20260508201932 | 24 | 134 | 4.8 | 16.1 | 0.00 | 0.00 | 0.00 | 25 | 1017.2 |
| 20260508201807 | 24 | 78 | 4.8 | 16.1 | 0.00 | 0.00 | 0.00 | 26 | 1017.1 |
| 20260508201738 | 24 | 236 | 4.8 | 17.7 | 0.00 | 0.00 | 0.00 | 26 | 1017.1 |
| 20260508201519 | 24 | 228 | 4.8 | 12.9 | 0.00 | 0.00 | 0.00 | 26 | 1017.1 |
| 20260508201407 | 24 | 198 | 3.2 | 9.7 | 0.00 | 0.00 | 0.00 | 29 | 1017.2 |
| 20260508201302 | 24 | 203 | 3.2 | 9.7 | 0.00 | 0.00 | 0.00 | 25 | 1017.2 |
| 20260508201205 | 24 | 243 | 3.2 | 9.7 | 0.00 | 0.00 | 0.00 | 25 | 1017.3 |
| 20260508201103 | 24 | 279 | 3.2 | 9.7 | 0.00 | 0.00 | 0.00 | 28 | 1017.3 |
| 20260508201003 | 24 | 235 | 3.2 | 9.7 | 0.00 | 0.00 | 0.00 | 26 | 1017.2 |
| 20260508200901 | 24 | 225 | 3.2 | 11.3 | 0.00 | 0.00 | 0.00 | 25 | 1017.3 |
| 20260508200804 | 24 | 179 | 3.2 | 8.0 | 0.00 | 0.00 | 0.00 | 29 | 1017.3 |
| 20260508200705 | 24 | 155 | 3.2 | 8.0 | 0.00 | 0.00 | 0.00 | 24 | 1017.1 |
| 20260508200603 | 24 | 252 | 3.2 | 8.0 | 0.00 | 0.00 | 0.00 | 26 | 1017.3 |
| 20260508200501 | 24 | 256 | 3.2 | 8.0 | 0.00 | 0.00 | 0.00 | 28 | 1017.3 |
| 20260508200401 | 24 | 147 | 3.2 | 9.7 | 0.00 | 0.00 | 0.00 | 25 | 1017.3 |
| 20260508200346 | 24 | 156 | 3.2 | 9.7 | 0.00 | 0.00 | 0.00 | 25 | 1017.3 |
| 20260508200008 | 24 | 238 | 3.2 | 9.7 | 0.00 | 0.00 | 0.00 | 26 | 1017.3 |
| 20260508195901 | 24 | 165 | 3.2 | 9.7 | 0.00 | 0.00 | 0.00 | 28 | 1017.4 |
| 20260508195801 | 24 | 209 | 3.2 | 9.7 | 0.00 | 0.00 | 0.00 | 28 | 1017.3 |
| 20260508195718 | 24 | 162 | 3.2 | 9.7 | 0.00 | 0.00 | 0.00 | 29 | 1017.3 |
| 20260508195602 | 24 | 107 | 3.2 | 9.7 | 0.00 | 0.00 | 0.00 | 28 | 1017.4 |
| 20260508195517 | 24 | 219 | 3.2 | 9.7 | 0.00 | 0.00 | 0.00 | 28 | 1017.4 |
| 20260508195402 | 24 | 140 | 3.2 | 9.7 | 0.00 | 0.00 | 0.00 | 28 | 1017.4 |
| 20260508195305 | 24 | 153 | 3.2 | 9.7 | 0.00 | 0.00 | 0.00 | 30 | 1017.4 |
| 20260508195203 | 23 | 240 | 3.2 | 9.7 | 0.00 | 0.00 | 0.00 | 30 | 1017.4 |
| 20260508195102 | 23 | 138 | 3.2 | 9.7 | 0.00 | 0.00 | 0.00 | 30 | 1017.4 |
| 20260508195003 | 23 | 115 | 3.2 | 9.7 | 0.00 | 0.00 | 0.00 | 29 | 1017.4 |
| 20260508194902 | 23 | 182 | 3.2 | 9.7 | 0.00 | 0.00 | 0.00 | 31 | 1017.4 |
| 20260508194842 | 23 | 151 | 3.2 | 9.7 | 0.00 | 0.00 | 0.00 | 31 | 1017.4 |
| 20260508194741 | 23 | 258 | 3.2 | 9.7 | 0.00 | 0.00 | 0.00 | 28 | 1017.4 |
| 20260508194502 | 23 | 188 | 3.2 | 9.7 | 0.00 | 0.00 | 0.00 | 28 | 1017.4 |
| 20260508194437 | 23 | 202 | 3.2 | 9.7 | 0.00 | 0.00 | 0.00 | 28 | 1017.4 |
| 20260508194221 | 23 | 153 | 3.2 | 11.3 | 0.00 | 0.00 | 0.00 | 31 | 1017.4 |
| 20260508194112 | 23 | 107 | 3.2 | 11.3 | 0.00 | 0.00 | 0.00 | 28 | 1017.4 |
| 20260508194004 | 23 | 157 | 3.2 | 9.7 | 0.00 | 0.00 | 0.00 | 28 | 1017.4 |
| 20260508193903 | 23 | 229 | 3.2 | 9.7 | 0.00 | 0.00 | 0.00 | 29 | 1017.5 |
| 20260508193804 | 23 | 257 | 3.2 | 9.7 | 0.00 | 0.00 | 0.00 | 29 | 1017.5 |
| 20260508193703 | 23 | 288 | 3.2 | 9.7 | 0.00 | 0.00 | 0.00 | 30 | 1017.4 |
| 20260508193603 | 23 | 271 | 3.2 | 9.7 | 0.00 | 0.00 | 0.00 | 32 | 1017.5 |
| 20260508193536 | 23 | 240 | 3.2 | 9.7 | 0.00 | 0.00 | 0.00 | 32 | 1017.5 |
| 20260508193427 | 23 | 285 | 3.2 | 11.3 | 0.00 | 0.00 | 0.00 | 33 | 1017.5 |
| 20260508193321 | 23 | 252 | 3.2 | 11.3 | 0.00 | 0.00 | 0.00 | 30 | 1017.5 |
| 20260508193214 | 23 | 138 | 3.2 | 11.3 | 0.00 | 0.00 | 0.00 | 31 | 1017.5 |
| 20260508193107 | 23 | 266 | 3.2 | 11.3 | 0.00 | 0.00 | 0.00 | 29 | 1017.5 |
| 20260508192913 | 23 | 348 | 3.2 | 11.3 | 0.00 | 0.00 | 0.00 | 30 | 1017.5 |
| 20260508192811 | 23 | 156 | 3.2 | 11.3 | 0.00 | 0.00 | 0.00 | 32 | 1017.5 |
| 20260508192704 | 23 | 292 | 3.2 | 11.3 | 0.00 | 0.00 | 0.00 | 29 | 1017.6 |
| 20260508192504 | 23 | 238 | 3.2 | 11.3 | 0.00 | 0.00 | 0.00 | 30 | 1017.6 |
| 20260508192405 | 23 | 138 | 3.2 | 11.3 | 0.00 | 0.00 | 0.00 | 30 | 1017.6 |
| 20260508192306 | 23 | 140 | 3.2 | 11.3 | 0.00 | 0.00 | 0.00 | 30 | 1017.6 |
| 20260508192205 | 23 | 227 | 3.2 | 11.3 | 0.00 | 0.00 | 0.00 | 30 | 1017.7 |
| 20260508192105 | 22 | 11 | 3.2 | 11.3 | 0.00 | 0.00 | 0.00 | 29 | 1017.6 |
| 20260508192005 | 22 | 210 | 3.2 | 11.3 | 0.00 | 0.00 | 0.00 | 32 | 1017.6 |
| 20260508191805 | 22 | 261 | 3.2 | 14.5 | 0.00 | 0.00 | 0.00 | 31 | 1017.6 |
| 20260508191704 | 22 | 147 | 4.8 | 14.5 | 0.00 | 0.00 | 0.00 | 31 | 1017.6 |
| 20260508191604 | 22 | 219 | 3.2 | 14.5 | 0.00 | 0.00 | 0.00 | 31 | 1017.6 |
| 20260508191505 | 22 | 217 | 4.8 | 14.5 | 0.00 | 0.00 | 0.00 | 29 | 1017.7 |
| 20260508191304 | 22 | 18 | 4.8 | 14.5 | 0.00 | 0.00 | 0.00 | 30 | 1017.7 |
| 20260508191205 | 22 | 211 | 4.8 | 14.5 | 0.00 | 0.00 | 0.00 | 31 | 1017.7 |
| 20260508190905 | 22 | 247 | 4.8 | 11.3 | 0.00 | 0.00 | 0.00 | 29 | 1017.7 |
| 20260508190805 | 22 | 236 | 4.8 | 11.3 | 0.00 | 0.00 | 0.00 | 29 | 1017.8 |
| 20260508190704 | 22 | 236 | 4.8 | 11.3 | 0.00 | 0.00 | 0.00 | 31 | 1017.7 |
| 20260508190604 | 22 | 292 | 4.8 | 11.3 | 0.00 | 0.00 | 0.00 | 30 | 1017.8 |
| 20260508190504 | 22 | 131 | 4.8 | 11.3 | 0.00 | 0.00 | 0.00 | 30 | 1017.7 |
| 20260508190304 | 22 | 271 | 4.8 | 9.7 | 0.00 | 0.00 | 0.00 | 31 | 1017.8 |
| 20260508190204 | 22 | 283 | 4.8 | 8.0 | 0.00 | 0.00 | 0.00 | 30 | 1017.8 |
| 20260508190005 | 22 | 242 | 4.8 | 9.7 | 0.00 | 0.00 | 0.00 | 32 | 1017.7 |
| 20260508185904 | 22 | 234 | 4.8 | 9.7 | 0.00 | 0.00 | 0.00 | 32 | 1017.8 |
| 20260508185804 | 22 | 151 | 4.8 | 9.7 | 0.00 | 0.00 | 0.00 | 31 | 1017.7 |
| 20260508185604 | 22 | 277 | 4.8 | 9.7 | 0.00 | 0.00 | 0.00 | 30 | 1017.7 |
| 20260508185504 | 22 | 214 | 3.2 | 9.7 | 0.00 | 0.00 | 0.00 | 32 | 1017.8 |
| 20260508185404 | 22 | 132 | 4.8 | 9.7 | 0.00 | 0.00 | 0.00 | 31 | 1017.7 |
| 20260508185306 | 22 | 171 | 4.8 | 9.7 | 0.00 | 0.00 | 0.00 | 30 | 1017.7 |
| 20260508185204 | 22 | 148 | 4.8 | 8.0 | 0.00 | 0.00 | 0.00 | 30 | 1017.7 |
| 20260508185104 | 22 | 273 | 4.8 | 9.7 | 0.00 | 0.00 | 0.00 | 30 | 1017.7 |
| 20260508184904 | 22 | 241 | 4.8 | 11.3 | 0.00 | 0.00 | 0.00 | 30 | 1017.8 |
| 20260508184804 | 22 | 243 | 4.8 | 11.3 | 0.00 | 0.00 | 0.00 | 32 | 1017.8 |
| 20260508184705 | 22 | 147 | 4.8 | 11.3 | 0.00 | 0.00 | 0.00 | 31 | 1017.8 |
| 20260508184604 | 22 | 138 | 4.8 | 11.3 | 0.00 | 0.00 | 0.00 | 32 | 1017.7 |
| 20260508184504 | 22 | 132 | 4.8 | 11.3 | 0.00 | 0.00 | 0.00 | 32 | 1017.8 |
| 20260508184405 | 22 | 257 | 4.8 | 11.3 | 0.00 | 0.00 | 0.00 | 33 | 1017.8 |
| 20260508184305 | 22 | 234 | 4.8 | 11.3 | 0.00 | 0.00 | 0.00 | 32 | 1017.8 |
| 20260508184205 | 22 | 286 | 4.8 | 11.3 | 0.00 | 0.00 | 0.00 | 31 | 1017.8 |
| 20260508184105 | 22 | 266 | 4.8 | 11.3 | 0.00 | 0.00 | 0.00 | 29 | 1017.9 |
| 20260508184006 | 22 | 290 | 4.8 | 8.0 | 0.00 | 0.00 | 0.00 | 32 | 1017.8 |
| 20260508183905 | 22 | 242 | 4.8 | 8.0 | 0.00 | 0.00 | 0.00 | 31 | 1017.8 |
| 20260508183805 | 22 | 292 | 4.8 | 9.7 | 0.00 | 0.00 | 0.00 | 31 | 1017.8 |
| 20260508183705 | 22 | 297 | 4.8 | 9.7 | 0.00 | 0.00 | 0.00 | 30 | 1017.9 |
| 20260508183605 | 22 | 246 | 4.8 | 9.7 | 0.00 | 0.00 | 0.00 | 29 | 1017.8 |
| 20260508183505 | 22 | 259 | 4.8 | 9.7 | 0.00 | 0.00 | 0.00 | 29 | 1017.9 |
| 20260508183404 | 22 | 244 | 4.8 | 9.7 | 0.00 | 0.00 | 0.00 | 31 | 1017.9 |
| 20260508183304 | 22 | 240 | 4.8 | 12.9 | 0.00 | 0.00 | 0.00 | 32 | 1017.9 |
| 20260508183205 | 22 | 217 | 3.2 | 12.9 | 0.00 | 0.00 | 0.00 | 32 | 1017.9 |
| 20260508183104 | 22 | 219 | 3.2 | 12.9 | 0.00 | 0.00 | 0.00 | 33 | 1017.9 |
| 20260508182904 | 22 | 137 | 3.2 | 12.9 | 0.00 | 0.00 | 0.00 | 32 | 1017.9 |
| 20260508182804 | 22 | 242 | 3.2 | 12.9 | 0.00 | 0.00 | 0.00 | 31 | 1018.0 |
| 20260508182704 | 22 | 250 | 3.2 | 12.9 | 0.00 | 0.00 | 0.00 | 31 | 1017.9 |
| 20260508182603 | 22 | 236 | 3.2 | 12.9 | 0.00 | 0.00 | 0.00 | 32 | 1017.9 |
| 20260508182404 | 22 | 146 | 3.2 | 9.7 | 0.00 | 0.00 | 0.00 | 33 | 1018.0 |
| 20260508182204 | 22 | 138 | 3.2 | 9.7 | 0.00 | 0.00 | 0.00 | 33 | 1018.0 |
| 20260508182005 | 22 | 195 | 3.2 | 9.7 | 0.00 | 0.00 | 0.00 | 31 | 1018.0 |
| 20260508181904 | 22 | 222 | 3.2 | 9.7 | 0.00 | 0.00 | 0.00 | 31 | 1018.0 |
| 20260508181605 | 22 | 257 | 3.2 | 11.3 | 0.00 | 0.00 | 0.00 | 33 | 1018.0 |
| 20260508181405 | 22 | 179 | 3.2 | 11.3 | 0.00 | 0.00 | 0.00 | 35 | 1018.0 |
| 20260508181205 | 22 | 191 | 3.2 | 11.3 | 0.00 | 0.00 | 0.00 | 35 | 1018.1 |
| 20260508181105 | 22 | 115 | 1.6 | 8.0 | 0.00 | 0.00 | 0.00 | 36 | 1018.0 |
| 20260508181010 | 22 | 277 | 3.2 | 8.0 | 0.00 | 0.00 | 0.00 | 34 | 1018.1 |
| 20260508180905 | 22 | 238 | 1.6 | 8.0 | 0.00 | 0.00 | 0.00 | 36 | 1018.1 |
| 20260508180805 | 22 | 155 | 1.6 | 8.0 | 0.00 | 0.00 | 0.00 | 34 | 1018.1 |
| 20260508180705 | 22 | 225 | 1.6 | 8.0 | 0.00 | 0.00 | 0.00 | 32 | 1018.0 |
| 20260508180605 | 22 | 290 | 1.6 | 8.0 | 0.00 | 0.00 | 0.00 | 34 | 1018.1 |
| 20260508180506 | 22 | 23 | 1.6 | 8.0 | 0.00 | 0.00 | 0.00 | 34 | 1018.0 |
| 20260508180405 | 22 | 125 | 3.2 | 8.0 | 0.00 | 0.00 | 0.00 | 36 | 1018.1 |
| 20260508180305 | 22 | 232 | 3.2 | 8.0 | 0.00 | 0.00 | 0.00 | 37 | 1018.1 |
| 20260508180204 | 22 | 265 | 3.2 | 8.0 | 0.00 | 0.00 | 0.00 | 37 | 1018.2 |
| 20260508180104 | 22 | 227 | 3.2 | 8.0 | 0.00 | 0.00 | 0.00 | 36 | 1018.1 |
| 20260508180006 | 22 | 159 | 3.2 | 8.0 | 0.00 | 0.00 | 0.00 | 36 | 1018.1 |
| 20260508175904 | 22 | 146 | 3.2 | 8.0 | 0.00 | 0.00 | 0.00 | 35 | 1018.2 |
| 20260508175804 | 22 | 76 | 3.2 | 8.0 | 0.00 | 0.00 | 0.00 | 34 | 1018.1 |
| 20260508175504 | 22 | 125 | 3.2 | 8.0 | 0.00 | 0.00 | 0.00 | 34 | 1018.1 |
| 20260508175404 | 22 | 148 | 3.2 | 6.4 | 0.00 | 0.00 | 0.00 | 35 | 1018.1 |
| 20260508175306 | 22 | 117 | 3.2 | 8.0 | 0.00 | 0.00 | 0.00 | 35 | 1018.1 |
| 20260508175204 | 22 | 71 | 1.6 | 6.4 | 0.00 | 0.00 | 0.00 | 35 | 1018.1 |
| 20260508175104 | 22 | 181 | 1.6 | 6.4 | 0.00 | 0.00 | 0.00 | 35 | 1018.2 |
| 20260508175005 | 22 | 143 | 1.6 | 6.4 | 0.00 | 0.00 | 0.00 | 34 | 1018.2 |
| 20260508174903 | 22 | 166 | 1.6 | 6.4 | 0.00 | 0.00 | 0.00 | 34 | 1018.2 |
| 20260508174804 | 22 | 145 | 1.6 | 4.8 | 0.00 | 0.00 | 0.00 | 34 | 1018.1 |
| 20260508174704 | 22 | 227 | 1.6 | 6.4 | 0.00 | 0.00 | 0.00 | 33 | 1018.2 |
| 20260508174603 | 22 | 171 | 1.6 | 6.4 | 0.00 | 0.00 | 0.00 | 35 | 1018.2 |
| 20260508174504 | 22 | 248 | 1.6 | 6.4 | 0.00 | 0.00 | 0.00 | 34 | 1018.2 |
| 20260508174304 | 22 | 247 | 1.6 | 6.4 | 0.00 | 0.00 | 0.00 | 34 | 1018.2 |
| 20260508174205 | 22 | 126 | 1.6 | 6.4 | 0.00 | 0.00 | 0.00 | 35 | 1018.2 |
| 20260508174104 | 22 | 148 | 3.2 | 6.4 | 0.00 | 0.00 | 0.00 | 37 | 1018.3 |
| 20260508174005 | 22 | 162 | 3.2 | 6.4 | 0.00 | 0.00 | 0.00 | 38 | 1018.2 |
| 20260508173905 | 22 | 128 | 3.2 | 6.4 | 0.00 | 0.00 | 0.00 | 36 | 1018.3 |
| 20260508173704 | 21 | 138 | 1.6 | 6.4 | 0.00 | 0.00 | 0.00 | 37 | 1018.2 |
| 20260508173604 | 21 | 144 | 1.6 | 6.4 | 0.00 | 0.00 | 0.00 | 35 | 1018.2 |
| 20260508173404 | 21 | 150 | 1.6 | 9.7 | 0.00 | 0.00 | 0.00 | 35 | 1018.2 |
| 20260508173305 | 21 | 141 | 1.6 | 9.7 | 0.00 | 0.00 | 0.00 | 38 | 1018.2 |
| 20260508172904 | 21 | 344 | 1.6 | 9.7 | 0.00 | 0.00 | 0.00 | 36 | 1018.3 |
| 20260508172804 | 21 | 148 | 1.6 | 9.7 | 0.00 | 0.00 | 0.00 | 37 | 1018.3 |
| 20260508172705 | 21 | 157 | 1.6 | 9.7 | 0.00 | 0.00 | 0.00 | 37 | 1018.3 |
| 20260508172604 | 21 | 238 | 1.6 | 8.0 | 0.00 | 0.00 | 0.00 | 38 | 1018.3 |
| 20260508172504 | 21 | 221 | 1.6 | 8.0 | 0.00 | 0.00 | 0.00 | 38 | 1018.3 |
| 20260508172307 | 21 | 139 | 1.6 | 8.0 | 0.00 | 0.00 | 0.00 | 37 | 1018.3 |
| 20260508172104 | 21 | 148 | 1.6 | 4.8 | 0.00 | 0.00 | 0.00 | 38 | 1018.2 |
| 20260508172005 | 21 | 275 | 1.6 | 4.8 | 0.00 | 0.00 | 0.00 | 36 | 1018.3 |
| 20260508171904 | 21 | 115 | 1.6 | 6.4 | 0.00 | 0.00 | 0.00 | 37 | 1018.4 |
| 20260508171704 | 21 | 56 | 1.6 | 6.4 | 0.00 | 0.00 | 0.00 | 35 | 1018.3 |
| 20260508171603 | 21 | 43 | 1.6 | 6.4 | 0.00 | 0.00 | 0.00 | 35 | 1018.3 |
| 20260508171504 | 21 | 252 | 1.6 | 6.4 | 0.00 | 0.00 | 0.00 | 38 | 1018.4 |
| 20260508171404 | 21 | 249 | 1.6 | 6.4 | 0.00 | 0.00 | 0.00 | 36 | 1018.3 |
| 20260508171305 | 21 | 267 | 1.6 | 6.4 | 0.00 | 0.00 | 0.00 | 37 | 1018.3 |
| 20260508171203 | 21 | 259 | 1.6 | 6.4 | 0.00 | 0.00 | 0.00 | 37 | 1018.4 |
| 20260508171104 | 21 | 132 | 1.6 | 8.0 | 0.00 | 0.00 | 0.00 | 39 | 1018.3 |
| 20260508170804 | 20 | 23 | 3.2 | 11.3 | 0.00 | 0.00 | 0.00 | 37 | 1018.3 |
| 20260508170604 | 20 | 247 | 3.2 | 11.3 | 0.00 | 0.00 | 0.00 | 35 | 1018.3 |
| 20260508170504 | 20 | 98 | 3.2 | 11.3 | 0.00 | 0.00 | 0.00 | 38 | 1018.4 |
| 20260508170304 | 20 | 227 | 3.2 | 11.3 | 0.00 | 0.00 | 0.00 | 38 | 1018.4 |
| 20260508170203 | 20 | 264 | 3.2 | 11.3 | 0.00 | 0.00 | 0.00 | 37 | 1018.3 |
| 20260508170007 | 20 | 274 | 3.2 | 9.7 | 0.00 | 0.00 | 0.00 | 37 | 1018.4 |
| 20260508165904 | 20 | 149 | 3.2 | 9.7 | 0.00 | 0.00 | 0.00 | 39 | 1018.3 |
| 20260508165804 | 20 | 155 | 3.2 | 9.7 | 0.00 | 0.00 | 0.00 | 39 | 1018.3 |
| 20260508165704 | 21 | 229 | 3.2 | 6.4 | 0.00 | 0.00 | 0.00 | 38 | 1018.3 |
| 20260508165604 | 21 | 239 | 3.2 | 6.4 | 0.00 | 0.00 | 0.00 | 39 | 1018.3 |
| 20260508165503 | 21 | 223 | 3.2 | 6.4 | 0.00 | 0.00 | 0.00 | 39 | 1018.2 |
| 20260508165403 | 21 | 165 | 3.2 | 6.4 | 0.00 | 0.00 | 0.00 | 41 | 1018.3 |
| 20260508165306 | 21 | 144 | 3.2 | 11.3 | 0.00 | 0.00 | 0.00 | 43 | 1018.2 |
| 20260508165203 | 21 | 224 | 3.2 | 11.3 | 0.00 | 0.00 | 0.00 | 43 | 1018.3 |
| 20260508165104 | 21 | 257 | 3.2 | 11.3 | 0.00 | 0.00 | 0.00 | 40 | 1018.2 |
| 20260508165005 | 21 | 165 | 1.6 | 11.3 | 0.00 | 0.00 | 0.00 | 43 | 1018.2 |
| 20260508164903 | 21 | 209 | 1.6 | 11.3 | 0.00 | 0.00 | 0.00 | 44 | 1018.3 |
| 20260508164805 | 21 | 150 | 1.6 | 11.3 | 0.00 | 0.00 | 0.00 | 43 | 1018.2 |
| 20260508164704 | 21 | 149 | 1.6 | 11.3 | 0.00 | 0.00 | 0.00 | 44 | 1018.2 |
| 20260508164604 | 21 | 148 | 3.2 | 11.3 | 0.00 | 0.00 | 0.00 | 44 | 1018.3 |
| 20260508164504 | 21 | 216 | 3.2 | 11.3 | 0.00 | 0.00 | 0.00 | 45 | 1018.2 |
| 20260508164403 | 21 | 246 | 1.6 | 8.0 | 0.00 | 0.00 | 0.00 | 47 | 1018.2 |
| 20260508164304 | 21 | 237 | 1.6 | 8.0 | 0.00 | 0.00 | 0.00 | 45 | 1018.3 |
| 20260508164204 | 21 | 202 | 1.6 | 8.0 | 0.00 | 0.00 | 0.00 | 47 | 1018.2 |
| 20260508164103 | 21 | 244 | 1.6 | 8.0 | 0.00 | 0.00 | 0.00 | 49 | 1018.3 |
| 20260508164004 | 21 | 243 | 1.6 | 8.0 | 0.00 | 0.00 | 0.00 | 47 | 1018.2 |
| 20260508163904 | 21 | 133 | 1.6 | 8.0 | 0.00 | 0.00 | 0.00 | 49 | 1018.2 |
| 20260508163804 | 21 | 235 | 1.6 | 8.0 | 0.00 | 0.00 | 0.00 | 47 | 1018.2 |
| 20260508163703 | 21 | 263 | 1.6 | 8.0 | 0.00 | 0.00 | 0.00 | 48 | 1018.2 |
| 20260508163603 | 21 | 241 | 1.6 | 8.0 | 0.00 | 0.00 | 0.00 | 45 | 1018.2 |
| 20260508163403 | 21 | 219 | 1.6 | 8.0 | 0.00 | 0.00 | 0.00 | 47 | 1018.2 |
| 20260508163204 | 21 | 158 | 1.6 | 8.0 | 0.00 | 0.00 | 0.00 | 46 | 1018.2 |
| 20260508163103 | 21 | 128 | 1.6 | 4.8 | 0.00 | 0.00 | 0.00 | 47 | 1018.1 |
| 20260508163005 | 21 | 196 | 1.6 | 4.8 | 0.00 | 0.00 | 0.00 | 47 | 1018.1 |
| 20260508162903 | 21 | 163 | 0.0 | 4.8 | 0.00 | 0.00 | 0.00 | 47 | 1018.0 |
| 20260508162804 | 21 | 117 | 1.6 | 4.8 | 0.00 | 0.00 | 0.00 | 45 | 1018.1 |
| 20260508162703 | 21 | 140 | 1.6 | 4.8 | 0.00 | 0.00 | 0.00 | 46 | 1018.0 |
| 20260508162603 | 21 | 207 | 1.6 | 4.8 | 0.00 | 0.00 | 0.00 | 46 | 1018.0 |
| 20260508162503 | 21 | 170 | 1.6 | 4.8 | 0.00 | 0.00 | 0.00 | 46 | 1018.0 |
| 20260508162403 | 21 | 241 | 0.0 | 4.8 | 0.00 | 0.00 | 0.00 | 47 | 1017.9 |
| 20260508162306 | 21 | 200 | 0.0 | 4.8 | 0.00 | 0.00 | 0.00 | 46 | 1018.0 |
| 20260508162204 | 21 | 221 | 0.0 | 4.8 | 0.00 | 0.00 | 0.00 | 47 | 1018.1 |
| 20260508162104 | 21 | 261 | 1.6 | 4.8 | 0.00 | 0.00 | 0.00 | 48 | 1018.1 |
| 20260508162004 | 21 | 263 | 1.6 | 4.8 | 0.00 | 0.00 | 0.00 | 47 | 1018.0 |
| 20260508161904 | 21 | 279 | 1.6 | 4.8 | 0.00 | 0.00 | 0.00 | 49 | 1018.0 |
| 20260508161703 | 20 | 247 | 1.6 | 4.8 | 0.00 | 0.00 | 0.00 | 48 | 1018.0 |
| 20260508161604 | 20 | 119 | 1.6 | 4.8 | 0.00 | 0.00 | 0.00 | 47 | 1018.1 |
| 20260508161504 | 20 | 134 | 1.6 | 4.8 | 0.00 | 0.00 | 0.00 | 49 | 1018.0 |
| 20260508161403 | 20 | 142 | 1.6 | 4.8 | 0.00 | 0.00 | 0.00 | 49 | 1018.0 |
| 20260508161304 | 20 | 142 | 1.6 | 4.8 | 0.00 | 0.00 | 0.00 | 48 | 1018.0 |
| 20260508161104 | 20 | 248 | 1.6 | 3.2 | 0.00 | 0.00 | 0.00 | 48 | 1018.0 |
| 20260508161004 | 20 | 261 | 1.6 | 3.2 | 0.00 | 0.00 | 0.00 | 48 | 1018.0 |
| 20260508160904 | 20 | 145 | 1.6 | 3.2 | 0.00 | 0.00 | 0.00 | 47 | 1017.9 |
| 20260508160804 | 20 | 142 | 1.6 | 3.2 | 0.00 | 0.00 | 0.00 | 46 | 1018.0 |
| 20260508160704 | 20 | 154 | 1.6 | 3.2 | 0.00 | 0.00 | 0.00 | 46 | 1017.9 |
| 20260508160603 | 20 | 244 | 1.6 | 3.2 | 0.00 | 0.00 | 0.00 | 47 | 1018.0 |
| 20260508160505 | 20 | 248 | 1.6 | 3.2 | 0.00 | 0.00 | 0.00 | 49 | 1018.0 |
| 20260508160405 | 20 | 252 | 1.6 | 4.8 | 0.00 | 0.00 | 0.00 | 47 | 1018.0 |
| 20260508160006 | 20 | 247 | 1.6 | 6.4 | 0.00 | 0.00 | 0.00 | 47 | 1018.0 |
| 20260508155903 | 20 | 238 | 1.6 | 6.4 | 0.00 | 0.00 | 0.00 | 47 | 1018.0 |
| 20260508155804 | 20 | 217 | 1.6 | 6.4 | 0.00 | 0.00 | 0.00 | 48 | 1018.0 |
| 20260508155704 | 20 | 131 | 1.6 | 6.4 | 0.00 | 0.00 | 0.00 | 49 | 1018.0 |
| 20260508155603 | 20 | 238 | 1.6 | 6.4 | 0.00 | 0.00 | 0.00 | 49 | 1018.0 |
| 20260508155504 | 20 | 131 | 1.6 | 6.4 | 0.00 | 0.00 | 0.00 | 48 | 1018.0 |
| 20260508155404 | 20 | 249 | 1.6 | 6.4 | 0.00 | 0.00 | 0.00 | 48 | 1018.0 |
| 20260508155306 | 20 | 152 | 1.6 | 4.8 | 0.00 | 0.00 | 0.00 | 48 | 1018.0 |
| 20260508155104 | 20 | 245 | 0.0 | 3.2 | 0.00 | 0.00 | 0.00 | 47 | 1018.0 |
| 20260508155005 | 20 | 15 | 0.0 | 3.2 | 0.00 | 0.00 | 0.00 | 47 | 1018.0 |
| 20260508154904 | 20 | 243 | 0.0 | 3.2 | 0.00 | 0.00 | 0.00 | 46 | 1018.0 |
| 20260508154803 | 20 | 281 | 0.0 | 3.2 | 0.00 | 0.00 | 0.00 | 47 | 1018.0 |
| 20260508154703 | 20 | 162 | 0.0 | 3.2 | 0.00 | 0.00 | 0.00 | 47 | 1018.0 |
| 20260508154604 | 20 | 158 | 0.0 | 3.2 | 0.00 | 0.00 | 0.00 | 47 | 1018.0 |
| 20260508154504 | 19 | 180 | 0.0 | 3.2 | 0.00 | 0.00 | 0.00 | 48 | 1018.0 |
| 20260508154304 | 19 | 110 | 0.0 | 3.2 | 0.00 | 0.00 | 0.00 | 46 | 1018.0 |
| 20260508154203 | 20 | 138 | 0.0 | 3.2 | 0.00 | 0.00 | 0.00 | 46 | 1017.9 |
| 20260508154104 | 20 | 266 | 0.0 | 3.2 | 0.00 | 0.00 | 0.00 | 46 | 1018.0 |
| 20260508154006 | 20 | 250 | 0.0 | 3.2 | 0.00 | 0.00 | 0.00 | 46 | 1018.0 |
| 20260508153904 | 20 | 152 | 0.0 | 3.2 | 0.00 | 0.00 | 0.00 | 48 | 1017.9 |
| 20260508153805 | 19 | 152 | 0.0 | 3.2 | 0.00 | 0.00 | 0.00 | 48 | 1018.0 |
| 20260508153704 | 19 | 152 | 0.0 | 3.2 | 0.00 | 0.00 | 0.00 | 48 | 1018.0 |
| 20260508153605 | 19 | 171 | 0.0 | 3.2 | 0.00 | 0.00 | 0.00 | 47 | 1018.0 |
| 20260508153503 | 19 | 59 | 0.0 | 3.2 | 0.00 | 0.00 | 0.00 | 47 | 1017.9 |
| 20260508153304 | 19 | 58 | 0.0 | 3.2 | 0.00 | 0.00 | 0.00 | 47 | 1017.9 |
| 20260508153204 | 19 | 99 | 0.0 | 1.6 | 0.00 | 0.00 | 0.00 | 47 | 1017.9 |
| 20260508153104 | 19 | 99 | 0.0 | 1.6 | 0.00 | 0.00 | 0.00 | 48 | 1017.9 |
| 20260508153005 | 19 | 99 | 0.0 | 1.6 | 0.00 | 0.00 | 0.00 | 47 | 1017.9 |
| 20260508152911 | 19 | 99 | 0.0 | 1.6 | 0.00 | 0.00 | 0.00 | 49 | 1017.8 |
| 20260508152704 | 18 | 99 | 0.0 | 3.2 | 0.00 | 0.00 | 0.00 | 49 | 1017.9 |
| 20260508152604 | 18 | 99 | 0.0 | 3.2 | 0.00 | 0.00 | 0.00 | 50 | 1017.9 |
| 20260508152504 | 18 | 95 | 0.0 | 3.2 | 0.00 | 0.00 | 0.00 | 49 | 1017.9 |
| 20260508152404 | 18 | 113 | 0.0 | 3.2 | 0.00 | 0.00 | 0.00 | 50 | 1017.9 |
| 20260508152204 | 18 | 109 | 0.0 | 3.2 | 0.00 | 0.00 | 0.00 | 49 | 1017.9 |
| 20260508152105 | 18 | 109 | 0.0 | 3.2 | 0.00 | 0.00 | 0.00 | 51 | 1017.9 |
| 20260508151905 | 18 | 51 | 0.0 | 3.2 | 0.00 | 0.00 | 0.00 | 49 | 1017.8 |
| 20260508151804 | 18 | 155 | 0.0 | 1.6 | 0.00 | 0.00 | 0.00 | 49 | 1017.8 |
| 20260508151705 | 18 | 155 | 0.0 | 1.6 | 0.00 | 0.00 | 0.00 | 49 | 1017.8 |
| 20260508151604 | 18 | 155 | 0.0 | 1.6 | 0.00 | 0.00 | 0.00 | 49 | 1017.8 |
| 20260508151404 | 18 | 115 | 0.0 | 1.6 | 0.00 | 0.00 | 0.00 | 51 | 1017.8 |
| 20260508151305 | 18 | 115 | 0.0 | 1.6 | 0.00 | 0.00 | 0.00 | 51 | 1017.9 |
| 20260508151204 | 18 | 72 | 0.0 | 1.6 | 0.00 | 0.00 | 0.00 | 51 | 1017.8 |
| 20260508151104 | 18 | 72 | 0.0 | 0.0 | 0.00 | 0.00 | 0.00 | 51 | 1017.9 |
| 20260508151004 | 18 | 72 | 0.0 | 1.6 | 0.00 | 0.00 | 0.00 | 51 | 1017.9 |
| 20260508150905 | 18 | 74 | 0.0 | 1.6 | 0.00 | 0.00 | 0.00 | 51 | 1017.8 |
| 20260508150805 | 17 | 74 | 0.0 | 3.2 | 0.00 | 0.00 | 0.00 | 52 | 1017.9 |
| 20260508150704 | 17 | 74 | 0.0 | 3.2 | 0.00 | 0.00 | 0.00 | 53 | 1017.9 |
| 20260508150603 | 17 | 74 | 0.0 | 3.2 | 0.00 | 0.00 | 0.00 | 54 | 1017.8 |
| 20260508150504 | 17 | 74 | 0.0 | 3.2 | 0.00 | 0.00 | 0.00 | 53 | 1017.9 |
| 20260508150404 | 17 | 71 | 0.0 | 3.2 | 0.00 | 0.00 | 0.00 | 52 | 1017.9 |
| 20260508150304 | 17 | 71 | 1.6 | 3.2 | 0.00 | 0.00 | 0.00 | 52 | 1017.9 |
| 20260508150204 | 17 | 71 | 1.6 | 3.2 | 0.00 | 0.00 | 0.00 | 51 | 1017.7 |
| 20260508150104 | 17 | 71 | 1.6 | 3.2 | 0.00 | 0.00 | 0.00 | 53 | 1017.9 |
| 20260508150006 | 17 | 98 | 1.6 | 3.2 | 0.00 | 0.00 | 0.00 | 52 | 1017.8 |
| 20260508145904 | 17 | 116 | 0.0 | 3.2 | 0.00 | 0.00 | 0.00 | 52 | 1017.8 |
| 20260508145704 | 17 | 195 | 1.6 | 3.2 | 0.00 | 0.00 | 0.00 | 53 | 1017.7 |
| 20260508145505 | 17 | 80 | 1.6 | 3.2 | 0.00 | 0.00 | 0.00 | 53 | 1017.8 |
| 20260508145404 | 16 | 78 | 1.6 | 3.2 | 0.00 | 0.00 | 0.00 | 53 | 1017.8 |
| 20260508145306 | 16 | 88 | 1.6 | 3.2 | 0.00 | 0.00 | 0.00 | 54 | 1017.7 |
| 20260508145204 | 16 | 74 | 1.6 | 3.2 | 0.00 | 0.00 | 0.00 | 52 | 1017.7 |
| 20260508145104 | 16 | 67 | 1.6 | 3.2 | 0.00 | 0.00 | 0.00 | 52 | 1017.7 |
| 20260508145005 | 16 | 79 | 1.6 | 3.2 | 0.00 | 0.00 | 0.00 | 52 | 1017.7 |
| 20260508144903 | 16 | 80 | 1.6 | 3.2 | 0.00 | 0.00 | 0.00 | 52 | 1017.7 |
| 20260508144704 | 16 | 86 | 0.0 | 3.2 | 0.00 | 0.00 | 0.00 | 52 | 1017.7 |
| 20260508144604 | 16 | 86 | 0.0 | 3.2 | 0.00 | 0.00 | 0.00 | 51 | 1017.7 |
| 20260508144504 | 16 | 88 | 0.0 | 3.2 | 0.00 | 0.00 | 0.00 | 52 | 1017.7 |
| 20260508144104 | 16 | 84 | 0.0 | 1.6 | 0.00 | 0.00 | 0.00 | 52 | 1017.7 |
| 20260508144005 | 16 | 84 | 0.0 | 0.0 | 0.00 | 0.00 | 0.00 | 53 | 1017.7 |
| 20260508143903 | 16 | 84 | 0.0 | 0.0 | 0.00 | 0.00 | 0.00 | 53 | 1017.6 |
| 20260508143804 | 16 | 84 | 0.0 | 0.0 | 0.00 | 0.00 | 0.00 | 53 | 1017.6 |
| 20260508143604 | 16 | 84 | 0.0 | 0.0 | 0.00 | 0.00 | 0.00 | 50 | 1017.6 |
| 20260508143504 | 16 | 84 | 0.0 | 0.0 | 0.00 | 0.00 | 0.00 | 51 | 1017.6 |
| 20260508143404 | 16 | 91 | 0.0 | 0.0 | 0.00 | 0.00 | 0.00 | 53 | 1017.6 |
| 20260508143304 | 16 | 91 | 0.0 | 0.0 | 0.00 | 0.00 | 0.00 | 52 | 1017.6 |
| 20260508143104 | 16 | 91 | 0.0 | 1.6 | 0.00 | 0.00 | 0.00 | 52 | 1017.6 |
| 20260508143005 | 16 | 91 | 0.0 | 1.6 | 0.00 | 0.00 | 0.00 | 54 | 1017.6 |
| 20260508142904 | 16 | 91 | 0.0 | 1.6 | 0.00 | 0.00 | 0.00 | 54 | 1017.6 |
| 20260508142804 | 16 | 91 | 0.0 | 1.6 | 0.00 | 0.00 | 0.00 | 53 | 1017.6 |
| 20260508142703 | 15 | 91 | 0.0 | 1.6 | 0.00 | 0.00 | 0.00 | 53 | 1017.6 |
| 20260508142604 | 15 | 90 | 0.0 | 1.6 | 0.00 | 0.00 | 0.00 | 54 | 1017.6 |
| 20260508142403 | 15 | 91 | 0.0 | 1.6 | 0.00 | 0.00 | 0.00 | 53 | 1017.6 |
| 20260508142306 | 15 | 76 | 0.0 | 1.6 | 0.00 | 0.00 | 0.00 | 52 | 1017.6 |
| 20260508142205 | 15 | 91 | 0.0 | 0.0 | 0.00 | 0.00 | 0.00 | 53 | 1017.6 |
| 20260508142104 | 15 | 92 | 0.0 | 0.0 | 0.00 | 0.00 | 0.00 | 54 | 1017.5 |
| 20260508142005 | 15 | 92 | 0.0 | 1.6 | 0.00 | 0.00 | 0.00 | 54 | 1017.6 |
| 20260508141905 | 15 | 91 | 0.0 | 1.6 | 0.00 | 0.00 | 0.00 | 53 | 1017.6 |
| 20260508141805 | 15 | 98 | 0.0 | 1.6 | 0.00 | 0.00 | 0.00 | 54 | 1017.6 |
| 20260508141705 | 15 | 98 | 0.0 | 1.6 | 0.00 | 0.00 | 0.00 | 54 | 1017.6 |
| 20260508141604 | 15 | 98 | 0.0 | 1.6 | 0.00 | 0.00 | 0.00 | 53 | 1017.5 |
| 20260508141504 | 15 | 98 | 0.0 | 1.6 | 0.00 | 0.00 | 0.00 | 53 | 1017.6 |
| 20260508141403 | 15 | 91 | 0.0 | 1.6 | 0.00 | 0.00 | 0.00 | 52 | 1017.5 |
| 20260508141303 | 15 | 91 | 0.0 | 1.6 | 0.00 | 0.00 | 0.00 | 53 | 1017.5 |
| 20260508141103 | 15 | 92 | 0.0 | 1.6 | 0.00 | 0.00 | 0.00 | 53 | 1017.5 |
| 20260508141005 | 15 | 92 | 0.0 | 1.6 | 0.00 | 0.00 | 0.00 | 52 | 1017.6 |
| 20260508140704 | 15 | 92 | 0.0 | 1.6 | 0.00 | 0.00 | 0.00 | 52 | 1017.5 |
| 20260508140604 | 15 | 92 | 0.0 | 1.6 | 0.00 | 0.00 | 0.00 | 52 | 1017.4 |
| 20260508140504 | 15 | 114 | 0.0 | 0.0 | 0.00 | 0.00 | 0.00 | 53 | 1017.4 |
| 20260508140404 | 15 | 114 | 0.0 | 0.0 | 0.00 | 0.00 | 0.00 | 52 | 1017.5 |
| 20260508140304 | 15 | 114 | 0.0 | 0.0 | 0.00 | 0.00 | 0.00 | 53 | 1017.4 |
| 20260508140206 | 14 | 115 | 0.0 | 0.0 | 0.00 | 0.00 | 0.00 | 54 | 1017.5 |
| 20260508140104 | 14 | 115 | 0.0 | 1.6 | 0.00 | 0.00 | 0.00 | 55 | 1017.5 |
| 20260508140006 | 14 | 115 | 0.0 | 1.6 | 0.00 | 0.00 | 0.00 | 55 | 1017.4 |
| 20260508135904 | 13 | 115 | 0.0 | 1.6 | 0.00 | 0.00 | 0.00 | 56 | 1017.4 |
| 20260508135804 | 13 | 115 | 0.0 | 1.6 | 0.00 | 0.00 | 0.00 | 55 | 1017.4 |
| 20260508135704 | 13 | 115 | 0.0 | 1.6 | 0.00 | 0.00 | 0.00 | 56 | 1017.5 |
| 20260508135504 | 13 | 115 | 0.0 | 1.6 | 0.00 | 0.00 | 0.00 | 57 | 1017.5 |
| 20260508135205 | 13 | 114 | 0.0 | 1.6 | 0.00 | 0.00 | 0.00 | 55 | 1017.4 |
| 20260508135104 | 13 | 114 | 0.0 | 1.6 | 0.00 | 0.00 | 0.00 | 55 | 1017.4 |
| 20260508135006 | 13 | 114 | 0.0 | 1.6 | 0.00 | 0.00 | 0.00 | 54 | 1017.4 |
| 20260508134904 | 13 | 114 | 0.0 | 1.6 | 0.00 | 0.00 | 0.00 | 56 | 1017.4 |
| 20260508134804 | 13 | 114 | 0.0 | 1.6 | 0.00 | 0.00 | 0.00 | 57 | 1017.3 |
| 20260508134704 | 13 | 114 | 0.0 | 1.6 | 0.00 | 0.00 | 0.00 | 56 | 1017.3 |
| 20260508134504 | 13 | 114 | 0.0 | 1.6 | 0.00 | 0.00 | 0.00 | 57 | 1017.3 |
| 20260508134403 | 13 | 114 | 0.0 | 1.6 | 0.00 | 0.00 | 0.00 | 58 | 1017.3 |
| 20260508134304 | 13 | 114 | 0.0 | 1.6 | 0.00 | 0.00 | 0.00 | 57 | 1017.3 |
| 20260508134204 | 13 | 114 | 0.0 | 1.6 | 0.00 | 0.00 | 0.00 | 55 | 1017.2 |
| 20260508134104 | 12 | 90 | 0.0 | 1.6 | 0.00 | 0.00 | 0.00 | 55 | 1017.1 |
| 20260508134004 | 12 | 84 | 0.0 | 1.6 | 0.00 | 0.00 | 0.00 | 56 | 1017.3 |
| 20260508133704 | 12 | 84 | 0.0 | 1.6 | 0.00 | 0.00 | 0.00 | 56 | 1017.1 |
| 20260508133503 | 12 | 84 | 0.0 | 0.0 | 0.00 | 0.00 | 0.00 | 59 | 1017.1 |
| 20260508133403 | 12 | 84 | 0.0 | 0.0 | 0.00 | 0.00 | 0.00 | 60 | 1017.1 |
| 20260508133204 | 12 | 84 | 0.0 | 0.0 | 0.00 | 0.00 | 0.00 | 59 | 1017.1 |
| 20260508133104 | 12 | 84 | 0.0 | 0.0 | 0.00 | 0.00 | 0.00 | 59 | 1017.2 |
| 20260508133004 | 12 | 84 | 0.0 | 0.0 | 0.00 | 0.00 | 0.00 | 59 | 1017.1 |
| 20260508132905 | 12 | 84 | 0.0 | 0.0 | 0.00 | 0.00 | 0.00 | 60 | 1017.1 |
| 20260508132804 | 12 | 84 | 0.0 | 0.0 | 0.00 | 0.00 | 0.00 | 60 | 1017.1 |
| 20260508132704 | 12 | 84 | 0.0 | 0.0 | 0.00 | 0.00 | 0.00 | 60 | 1017.1 |
| 20260508132604 | 11 | 84 | 0.0 | 0.0 | 0.00 | 0.00 | 0.00 | 59 | 1017.0 |
| 20260508132503 | 11 | 84 | 0.0 | 0.0 | 0.00 | 0.00 | 0.00 | 59 | 1017.1 |
| 20260508132306 | 11 | 84 | 0.0 | 0.0 | 0.00 | 0.00 | 0.00 | 61 | 1017.1 |
| 20260508132204 | 11 | 84 | 0.0 | 0.0 | 0.00 | 0.00 | 0.00 | 61 | 1017.0 |
| 20260508132104 | 11 | 84 | 0.0 | 0.0 | 0.00 | 0.00 | 0.00 | 60 | 1017.1 |
| 20260508132005 | 11 | 84 | 0.0 | 0.0 | 0.00 | 0.00 | 0.00 | 61 | 1017.1 |
| 20260508131803 | 11 | 84 | 0.0 | 0.0 | 0.00 | 0.00 | 0.00 | 61 | 1017.0 |
| 20260508131604 | 11 | 84 | 0.0 | 0.0 | 0.00 | 0.00 | 0.00 | 61 | 1016.9 |
| 20260508131404 | 11 | 84 | 0.0 | 0.0 | 0.00 | 0.00 | 0.00 | 60 | 1016.9 |
| 20260508131304 | 10 | 84 | 0.0 | 0.0 | 0.00 | 0.00 | 0.00 | 61 | 1017.0 |
| 20260508131205 | 10 | 84 | 0.0 | 0.0 | 0.00 | 0.00 | 0.00 | 61 | 1016.9 |
| 20260508131004 | 10 | 85 | 0.0 | 0.0 | 0.00 | 0.00 | 0.00 | 62 | 1016.8 |
| 20260508130904 | 10 | 85 | 0.0 | 0.0 | 0.00 | 0.00 | 0.00 | 63 | 1016.8 |
| 20260508130703 | 10 | 84 | 0.0 | 0.0 | 0.00 | 0.00 | 0.00 | 63 | 1016.8 |
| 20260508130603 | 10 | 85 | 0.0 | 0.0 | 0.00 | 0.00 | 0.00 | 63 | 1016.8 |
| 20260508130504 | 10 | 84 | 0.0 | 0.0 | 0.00 | 0.00 | 0.00 | 63 | 1016.8 |
| 20260508130404 | 10 | 84 | 0.0 | 0.0 | 0.00 | 0.00 | 0.00 | 64 | 1016.7 |
| 20260508130303 | 10 | 85 | 0.0 | 0.0 | 0.00 | 0.00 | 0.00 | 64 | 1016.7 |
| 20260508130203 | 10 | 84 | 0.0 | 1.6 | 0.00 | 0.00 | 0.00 | 64 | 1016.7 |
| 20260508130104 | 10 | 84 | 0.0 | 1.6 | 0.00 | 0.00 | 0.00 | 64 | 1016.7 |
| 20260508130006 | 10 | 84 | 0.0 | 1.6 | 0.00 | 0.00 | 0.00 | 64 | 1016.7 |
| 20260508125704 | 10 | 84 | 0.0 | 1.6 | 0.00 | 0.00 | 0.00 | 63 | 1016.8 |
| 20260508125604 | 10 | 84 | 0.0 | 1.6 | 0.00 | 0.00 | 0.00 | 63 | 1016.7 |
| 20260508125504 | 10 | 84 | 0.0 | 1.6 | 0.00 | 0.00 | 0.00 | 63 | 1016.6 |
| 20260508125403 | 10 | 84 | 0.0 | 1.6 | 0.00 | 0.00 | 0.00 | 62 | 1016.6 |
| 20260508125306 | 10 | 71 | 0.0 | 1.6 | 0.00 | 0.00 | 0.00 | 62 | 1016.6 |
| 20260508125204 | 10 | 69 | 0.0 | 1.6 | 0.00 | 0.00 | 0.00 | 63 | 1016.6 |
| 20260508125104 | 10 | 69 | 0.0 | 1.6 | 0.00 | 0.00 | 0.00 | 62 | 1016.6 |
| 20260508125004 | 10 | 69 | 0.0 | 1.6 | 0.00 | 0.00 | 0.00 | 62 | 1016.5 |
| 20260508124904 | 10 | 67 | 0.0 | 1.6 | 0.00 | 0.00 | 0.00 | 62 | 1016.5 |
| 20260508124804 | 10 | 67 | 0.0 | 1.6 | 0.00 | 0.00 | 0.00 | 62 | 1016.6 |
| 20260508124703 | 10 | 67 | 0.0 | 1.6 | 0.00 | 0.00 | 0.00 | 62 | 1016.5 |
| 20260508124603 | 10 | 67 | 0.0 | 1.6 | 0.00 | 0.00 | 0.00 | 63 | 1016.5 |
| 20260508124503 | 10 | 67 | 0.0 | 1.6 | 0.00 | 0.00 | 0.00 | 63 | 1016.5 |
| 20260508124403 | 10 | 67 | 0.0 | 1.6 | 0.00 | 0.00 | 0.00 | 63 | 1016.5 |
| 20260508124311 | 10 | 67 | 0.0 | 1.6 | 0.00 | 0.00 | 0.00 | 63 | 1016.5 |
| 20260508124204 | 10 | 67 | 0.0 | 1.6 | 0.00 | 0.00 | 0.00 | 63 | 1016.4 |
| 20260508124104 | 10 | 67 | 0.0 | 0.0 | 0.00 | 0.00 | 0.00 | 63 | 1016.5 |
| 20260508124004 | 10 | 67 | 0.0 | 1.6 | 0.00 | 0.00 | 0.00 | 63 | 1016.4 |
| 20260508123903 | 10 | 67 | 0.0 | 1.6 | 0.00 | 0.00 | 0.00 | 63 | 1016.5 |
| 20260508123803 | 10 | 67 | 0.0 | 1.6 | 0.00 | 0.00 | 0.00 | 63 | 1016.5 |
| 20260508123603 | 10 | 67 | 0.0 | 1.6 | 0.00 | 0.00 | 0.00 | 63 | 1016.4 |
| 20260508123503 | 10 | 67 | 0.0 | 1.6 | 0.00 | 0.00 | 0.00 | 63 | 1016.4 |
| 20260508123405 | 10 | 67 | 0.0 | 1.6 | 0.00 | 0.00 | 0.00 | 63 | 1016.4 |
| 20260508123303 | 10 | 67 | 0.0 | 1.6 | 0.00 | 0.00 | 0.00 | 63 | 1016.4 |
| 20260508123204 | 10 | 67 | 0.0 | 1.6 | 0.00 | 0.00 | 0.00 | 63 | 1016.4 |
| 20260508123104 | 10 | 67 | 0.0 | 1.6 | 0.00 | 0.00 | 0.00 | 63 | 1016.4 |
| 20260508123005 | 9 | 67 | 0.0 | 1.6 | 0.00 | 0.00 | 0.00 | 63 | 1016.3 |
| 20260508122904 | 9 | 67 | 0.0 | 1.6 | 0.00 | 0.00 | 0.00 | 63 | 1016.3 |
| 20260508122803 | 9 | 67 | 0.0 | 1.6 | 0.00 | 0.00 | 0.00 | 63 | 1016.3 |
| 20260508122703 | 9 | 67 | 0.0 | 1.6 | 0.00 | 0.00 | 0.00 | 63 | 1016.3 |
| 20260508122613 | 9 | 67 | 0.0 | 1.6 | 0.00 | 0.00 | 0.00 | 64 | 1016.4 |
| 20260508122504 | 9 | 67 | 0.0 | 1.6 | 0.00 | 0.00 | 0.00 | 64 | 1016.4 |
| 20260508122406 | 9 | 67 | 0.0 | 1.6 | 0.00 | 0.00 | 0.00 | 64 | 1016.3 |
| 20260508122204 | 9 | 67 | 0.0 | 1.6 | 0.00 | 0.00 | 0.00 | 63 | 1016.2 |
| 20260508122103 | 9 | 67 | 0.0 | 1.6 | 0.00 | 0.00 | 0.00 | 63 | 1016.3 |
| 20260508122005 | 9 | 67 | 0.0 | 1.6 | 0.00 | 0.00 | 0.00 | 63 | 1016.3 |
| 20260508121904 | 9 | 67 | 0.0 | 1.6 | 0.00 | 0.00 | 0.00 | 64 | 1016.3 |
| 20260508121803 | 9 | 67 | 0.0 | 1.6 | 0.00 | 0.00 | 0.00 | 64 | 1016.2 |
| 20260508121603 | 9 | 68 | 0.0 | 1.6 | 0.00 | 0.00 | 0.00 | 64 | 1016.3 |
| 20260508121503 | 9 | 68 | 0.0 | 1.6 | 0.00 | 0.00 | 0.00 | 64 | 1016.3 |
| 20260508121404 | 9 | 67 | 0.0 | 1.6 | 0.00 | 0.00 | 0.00 | 64 | 1016.3 |
| 20260508121303 | 9 | 67 | 0.0 | 1.6 | 0.00 | 0.00 | 0.00 | 64 | 1016.3 |
| 20260508121204 | 9 | 67 | 0.0 | 1.6 | 0.00 | 0.00 | 0.00 | 64 | 1016.3 |
| 20260508121103 | 9 | 67 | 0.0 | 1.6 | 0.00 | 0.00 | 0.00 | 64 | 1016.2 |
| 20260508121004 | 9 | 67 | 0.0 | 1.6 | 0.00 | 0.00 | 0.00 | 63 | 1016.2 |
| 20260508120703 | 9 | 67 | 0.0 | 1.6 | 0.00 | 0.00 | 0.00 | 63 | 1016.2 |
| 20260508120603 | 9 | 67 | 0.0 | 1.6 | 0.00 | 0.00 | 0.00 | 62 | 1016.2 |
| 20260508120407 | 10 | 67 | 0.0 | 1.6 | 0.00 | 0.00 | 0.00 | 62 | 1016.2 |
| 20260508120304 | 10 | 67 | 0.0 | 1.6 | 0.00 | 0.00 | 0.00 | 62 | 1016.2 |
| 20260508120104 | 10 | 67 | 0.0 | 1.6 | 0.00 | 0.00 | 0.00 | 61 | 1016.2 |
| 20260508115904 | 10 | 67 | 0.0 | 1.6 | 0.00 | 0.00 | 0.00 | 61 | 1016.0 |
| 20260508115803 | 10 | 67 | 0.0 | 1.6 | 0.00 | 0.00 | 0.00 | 61 | 1016.1 |
| 20260508115604 | 10 | 67 | 0.0 | 1.6 | 0.00 | 0.00 | 0.00 | 61 | 1016.0 |
| 20260508115504 | 10 | 68 | 0.0 | 1.6 | 0.00 | 0.00 | 0.00 | 61 | 1016.0 |
| 20260508115404 | 10 | 76 | 0.0 | 1.6 | 0.00 | 0.00 | 0.00 | 61 | 1016.0 |
| 20260508115306 | 10 | 76 | 0.0 | 1.6 | 0.00 | 0.00 | 0.00 | 62 | 1016.0 |
| 20260508115204 | 10 | 86 | 0.0 | 1.6 | 0.00 | 0.00 | 0.00 | 62 | 1015.9 |
| 20260508115004 | 10 | 88 | 0.0 | 0.0 | 0.00 | 0.00 | 0.00 | 62 | 1016.0 |
| 20260508114904 | 10 | 88 | 0.0 | 0.0 | 0.00 | 0.00 | 0.00 | 62 | 1016.0 |
| 20260508114704 | 10 | 88 | 0.0 | 0.0 | 0.00 | 0.00 | 0.00 | 61 | 1016.0 |
| 20260508114603 | 10 | 88 | 0.0 | 0.0 | 0.00 | 0.00 | 0.00 | 61 | 1016.0 |
| 20260508114503 | 10 | 88 | 0.0 | 0.0 | 0.00 | 0.00 | 0.00 | 61 | 1015.9 |
| 20260508114404 | 10 | 88 | 0.0 | 0.0 | 0.00 | 0.00 | 0.00 | 61 | 1016.1 |
| 20260508114303 | 10 | 88 | 0.0 | 0.0 | 0.00 | 0.00 | 0.00 | 61 | 1016.0 |
| 20260508114204 | 10 | 88 | 0.0 | 0.0 | 0.00 | 0.00 | 0.00 | 61 | 1016.0 |
| 20260508114104 | 10 | 88 | 0.0 | 0.0 | 0.00 | 0.00 | 0.00 | 61 | 1016.0 |
| 20260508113904 | 10 | 89 | 0.0 | 0.0 | 0.00 | 0.00 | 0.00 | 61 | 1016.0 |
| 20260508113803 | 10 | 89 | 0.0 | 0.0 | 0.00 | 0.00 | 0.00 | 61 | 1016.0 |
| 20260508113704 | 10 | 89 | 0.0 | 0.0 | 0.00 | 0.00 | 0.00 | 61 | 1015.9 |
| 20260508113604 | 10 | 89 | 0.0 | 0.0 | 0.00 | 0.00 | 0.00 | 61 | 1015.9 |
| 20260508113403 | 10 | 89 | 0.0 | 0.0 | 0.00 | 0.00 | 0.00 | 61 | 1015.9 |
| 20260508113303 | 10 | 89 | 0.0 | 0.0 | 0.00 | 0.00 | 0.00 | 61 | 1016.0 |
| 20260508113203 | 10 | 89 | 0.0 | 0.0 | 0.00 | 0.00 | 0.00 | 61 | 1015.9 |
| 20260508113005 | 10 | 89 | 0.0 | 0.0 | 0.00 | 0.00 | 0.00 | 60 | 1016.0 |
| 20260508112903 | 10 | 89 | 0.0 | 0.0 | 0.00 | 0.00 | 0.00 | 59 | 1016.0 |
| 20260508112804 | 10 | 89 | 0.0 | 0.0 | 0.00 | 0.00 | 0.00 | 59 | 1016.0 |
| 20260508112403 | 10 | 89 | 0.0 | 0.0 | 0.00 | 0.00 | 0.00 | 59 | 1016.0 |
| 20260508112306 | 10 | 89 | 0.0 | 0.0 | 0.00 | 0.00 | 0.00 | 59 | 1016.0 |
| 20260508112203 | 10 | 89 | 0.0 | 0.0 | 0.00 | 0.00 | 0.00 | 59 | 1015.9 |
| 20260508112103 | 10 | 89 | 0.0 | 0.0 | 0.00 | 0.00 | 0.00 | 59 | 1015.9 |
| 20260508112004 | 10 | 89 | 0.0 | 0.0 | 0.00 | 0.00 | 0.00 | 59 | 1016.0 |
| 20260508111802 | 10 | 88 | 0.0 | 0.0 | 0.00 | 0.00 | 0.00 | 58 | 1015.9 |
| 20260508111703 | 10 | 89 | 0.0 | 0.0 | 0.00 | 0.00 | 0.00 | 58 | 1015.9 |
| 20260508111602 | 10 | 89 | 0.0 | 0.0 | 0.00 | 0.00 | 0.00 | 58 | 1015.9 |
| 20260508111402 | 11 | 88 | 0.0 | 0.0 | 0.00 | 0.00 | 0.00 | 57 | 1015.9 |
| 20260508111303 | 11 | 89 | 0.0 | 0.0 | 0.00 | 0.00 | 0.00 | 58 | 1015.9 |
| 20260508111203 | 11 | 89 | 0.0 | 0.0 | 0.00 | 0.00 | 0.00 | 58 | 1015.9 |
| 20260508111103 | 11 | 88 | 0.0 | 0.0 | 0.00 | 0.00 | 0.00 | 57 | 1015.8 |
| 20260508111004 | 11 | 89 | 0.0 | 0.0 | 0.00 | 0.00 | 0.00 | 57 | 1016.0 |
| 20260508110903 | 11 | 89 | 0.0 | 0.0 | 0.00 | 0.00 | 0.00 | 57 | 1015.9 |
| 20260508110804 | 11 | 89 | 0.0 | 0.0 | 0.00 | 0.00 | 0.00 | 57 | 1015.9 |
| 20260508110703 | 11 | 89 | 0.0 | 0.0 | 0.00 | 0.00 | 0.00 | 57 | 1015.9 |
| 20260508110603 | 11 | 89 | 0.0 | 0.0 | 0.00 | 0.00 | 0.00 | 57 | 1015.9 |
| 20260508110504 | 11 | 89 | 0.0 | 0.0 | 0.00 | 0.00 | 0.00 | 57 | 1015.9 |
| 20260508110403 | 11 | 89 | 0.0 | 0.0 | 0.00 | 0.00 | 0.00 | 57 | 1015.9 |
| 20260508110304 | 11 | 89 | 0.0 | 1.6 | 0.00 | 0.00 | 0.00 | 57 | 1015.9 |
| 20260508110204 | 11 | 89 | 0.0 | 1.6 | 0.00 | 0.00 | 0.00 | 57 | 1016.0 |
| 20260508110104 | 11 | 89 | 0.0 | 1.6 | 0.00 | 0.00 | 0.00 | 57 | 1015.8 |
| 20260508105904 | 10 | 89 | 0.0 | 1.6 | 0.00 | 0.00 | 0.00 | 57 | 1015.9 |
| 20260508105703 | 10 | 89 | 0.0 | 1.6 | 0.00 | 0.00 | 0.00 | 57 | 1015.9 |
| 20260508105504 | 10 | 89 | 0.0 | 0.0 | 0.00 | 0.00 | 0.00 | 58 | 1015.9 |
| 20260508105305 | 10 | 88 | 0.0 | 0.0 | 0.00 | 0.00 | 0.00 | 58 | 1015.9 |
| 20260508105203 | 10 | 88 | 0.0 | 0.0 | 0.00 | 0.00 | 0.00 | 58 | 1015.9 |
| 20260508105102 | 10 | 88 | 0.0 | 0.0 | 0.00 | 0.00 | 0.00 | 58 | 1015.8 |
| 20260508105003 | 10 | 88 | 0.0 | 0.0 | 0.00 | 0.00 | 0.00 | 58 | 1015.8 |
| 20260508104902 | 10 | 88 | 0.0 | 0.0 | 0.00 | 0.00 | 0.00 | 58 | 1015.8 |
| 20260508104803 | 10 | 88 | 0.0 | 0.0 | 0.00 | 0.00 | 0.00 | 58 | 1015.9 |
| 20260508104602 | 10 | 88 | 0.0 | 0.0 | 0.00 | 0.00 | 0.00 | 58 | 1015.8 |
| 20260508104504 | 10 | 88 | 0.0 | 0.0 | 0.00 | 0.00 | 0.00 | 58 | 1015.8 |
| 20260508104403 | 10 | 88 | 0.0 | 0.0 | 0.00 | 0.00 | 0.00 | 58 | 1015.7 |
| 20260508104203 | 10 | 88 | 0.0 | 0.0 | 0.00 | 0.00 | 0.00 | 58 | 1015.8 |
| 20260508104103 | 10 | 88 | 0.0 | 0.0 | 0.00 | 0.00 | 0.00 | 58 | 1015.7 |
| 20260508103903 | 10 | 88 | 0.0 | 0.0 | 0.00 | 0.00 | 0.00 | 57 | 1015.7 |
| 20260508103803 | 10 | 88 | 0.0 | 0.0 | 0.00 | 0.00 | 0.00 | 57 | 1015.8 |
| 20260508103603 | 10 | 88 | 0.0 | 0.0 | 0.00 | 0.00 | 0.00 | 57 | 1015.7 |
| 20260508103403 | 10 | 88 | 0.0 | 1.6 | 0.00 | 0.00 | 0.00 | 57 | 1015.7 |
| 20260508103303 | 11 | 88 | 0.0 | 1.6 | 0.00 | 0.00 | 0.00 | 57 | 1015.7 |
| 20260508103204 | 10 | 88 | 0.0 | 1.6 | 0.00 | 0.00 | 0.00 | 57 | 1015.7 |
| 20260508103103 | 10 | 88 | 0.0 | 1.6 | 0.00 | 0.00 | 0.00 | 57 | 1015.7 |
| 20260508102903 | 10 | 88 | 0.0 | 1.6 | 0.00 | 0.00 | 0.00 | 57 | 1015.7 |
| 20260508102803 | 10 | 88 | 0.0 | 1.6 | 0.00 | 0.00 | 0.00 | 58 | 1015.7 |
| 20260508102603 | 11 | 88 | 0.0 | 1.6 | 0.00 | 0.00 | 0.00 | 58 | 1015.7 |
| 20260508102504 | 11 | 86 | 0.0 | 3.2 | 0.00 | 0.00 | 0.00 | 58 | 1015.7 |
| 20260508102403 | 11 | 80 | 0.0 | 3.2 | 0.00 | 0.00 | 0.00 | 57 | 1015.7 |
| 20260508102306 | 11 | 80 | 0.0 | 3.2 | 0.00 | 0.00 | 0.00 | 57 | 1015.7 |
| 20260508102202 | 11 | 89 | 0.0 | 3.2 | 0.00 | 0.00 | 0.00 | 57 | 1015.7 |
| 20260508101903 | 11 | 89 | 0.0 | 3.2 | 0.00 | 0.00 | 0.00 | 56 | 1015.7 |
| 20260508101801 | 11 | 89 | 0.0 | 3.2 | 0.00 | 0.00 | 0.00 | 57 | 1015.7 |
| 20260508101703 | 11 | 65 | 0.0 | 3.2 | 0.00 | 0.00 | 0.00 | 57 | 1015.6 |
| 20260508101503 | 10 | 66 | 0.0 | 1.6 | 0.00 | 0.00 | 0.00 | 58 | 1015.6 |
| 20260508101304 | 10 | 70 | 0.0 | 0.0 | 0.00 | 0.00 | 0.00 | 59 | 1015.6 |
| 20260508101103 | 10 | 70 | 0.0 | 0.0 | 0.00 | 0.00 | 0.00 | 60 | 1015.6 |
| 20260508100903 | 10 | 70 | 0.0 | 0.0 | 0.00 | 0.00 | 0.00 | 60 | 1015.7 |
| 20260508100803 | 10 | 70 | 0.0 | 0.0 | 0.00 | 0.00 | 0.00 | 60 | 1015.6 |
| 20260508100704 | 10 | 70 | 0.0 | 0.0 | 0.00 | 0.00 | 0.00 | 61 | 1015.6 |
| 20260508100603 | 10 | 70 | 0.0 | 0.0 | 0.00 | 0.00 | 0.00 | 61 | 1015.7 |
| 20260508100504 | 10 | 70 | 0.0 | 0.0 | 0.00 | 0.00 | 0.00 | 61 | 1015.6 |
| 20260508100403 | 10 | 70 | 0.0 | 0.0 | 0.00 | 0.00 | 0.00 | 62 | 1015.7 |
| 20260508100303 | 10 | 70 | 0.0 | 0.0 | 0.00 | 0.00 | 0.00 | 62 | 1015.6 |
| 20260508100204 | 10 | 70 | 0.0 | 0.0 | 0.00 | 0.00 | 0.00 | 62 | 1015.7 |
| 20260508100103 | 10 | 70 | 0.0 | 0.0 | 0.00 | 0.00 | 0.00 | 62 | 1015.6 |
| 20260508100005 | 10 | 71 | 0.0 | 0.0 | 0.00 | 0.00 | 0.00 | 62 | 1015.6 |
| 20260508095803 | 10 | 71 | 0.0 | 0.0 | 0.00 | 0.00 | 0.00 | 63 | 1015.6 |
| 20260508095703 | 10 | 71 | 0.0 | 0.0 | 0.00 | 0.00 | 0.00 | 63 | 1015.6 |
| 20260508095604 | 10 | 71 | 0.0 | 0.0 | 0.00 | 0.00 | 0.00 | 64 | 1015.6 |
| 20260508095403 | 10 | 71 | 0.0 | 3.2 | 0.00 | 0.00 | 0.00 | 64 | 1015.6 |
| 20260508095306 | 10 | 71 | 0.0 | 3.2 | 0.00 | 0.00 | 0.00 | 64 | 1015.7 |
| 20260508095203 | 10 | 71 | 0.0 | 3.2 | 0.00 | 0.00 | 0.00 | 64 | 1015.7 |
| 20260508095103 | 10 | 71 | 0.0 | 3.2 | 0.00 | 0.00 | 0.00 | 64 | 1015.6 |
| 20260508095004 | 10 | 71 | 0.0 | 3.2 | 0.00 | 0.00 | 0.00 | 65 | 1015.7 |
| 20260508094904 | 10 | 71 | 0.0 | 3.2 | 0.00 | 0.00 | 0.00 | 65 | 1015.6 |
| 20260508094804 | 10 | 71 | 0.0 | 3.2 | 0.00 | 0.00 | 0.00 | 65 | 1015.7 |
| 20260508094604 | 10 | 96 | 0.0 | 3.2 | 0.00 | 0.00 | 0.00 | 64 | 1015.6 |
| 20260508094503 | 10 | 78 | 0.0 | 1.6 | 0.00 | 0.00 | 0.00 | 65 | 1015.7 |
| 20260508094402 | 10 | 78 | 0.0 | 1.6 | 0.00 | 0.00 | 0.00 | 65 | 1015.7 |
| 20260508094203 | 10 | 78 | 0.0 | 1.6 | 0.00 | 0.00 | 0.00 | 65 | 1015.7 |
| 20260508094103 | 9 | 78 | 0.0 | 1.6 | 0.00 | 0.00 | 0.00 | 66 | 1015.6 |
| 20260508094004 | 9 | 78 | 0.0 | 1.6 | 0.00 | 0.00 | 0.00 | 66 | 1015.6 |
| 20260508093903 | 9 | 79 | 0.0 | 1.6 | 0.00 | 0.00 | 0.00 | 67 | 1015.6 |
| 20260508093803 | 9 | 92 | 0.0 | 0.0 | 0.00 | 0.00 | 0.00 | 67 | 1015.5 |
| 20260508093702 | 9 | 92 | 0.0 | 0.0 | 0.00 | 0.00 | 0.00 | 67 | 1015.6 |
| 20260508093602 | 9 | 92 | 0.0 | 0.0 | 0.00 | 0.00 | 0.00 | 67 | 1015.6 |
| 20260508093503 | 9 | 92 | 0.0 | 0.0 | 0.00 | 0.00 | 0.00 | 68 | 1015.6 |
| 20260508093403 | 9 | 92 | 0.0 | 0.0 | 0.00 | 0.00 | 0.00 | 68 | 1015.5 |
| 20260508093202 | 9 | 92 | 0.0 | 0.0 | 0.00 | 0.00 | 0.00 | 68 | 1015.7 |
| 20260508093004 | 9 | 92 | 0.0 | 0.0 | 0.00 | 0.00 | 0.00 | 68 | 1015.6 |
| 20260508092902 | 9 | 92 | 0.0 | 0.0 | 0.00 | 0.00 | 0.00 | 69 | 1015.6 |
| 20260508092802 | 8 | 93 | 0.0 | 0.0 | 0.00 | 0.00 | 0.00 | 69 | 1015.6 |
| 20260508092703 | 8 | 95 | 0.0 | 0.0 | 0.00 | 0.00 | 0.00 | 69 | 1015.6 |
| 20260508092603 | 8 | 95 | 0.0 | 0.0 | 0.00 | 0.00 | 0.00 | 69 | 1015.6 |
| 20260508092503 | 8 | 95 | 0.0 | 0.0 | 0.00 | 0.00 | 0.00 | 69 | 1015.6 |
| 20260508092404 | 8 | 95 | 0.0 | 0.0 | 0.00 | 0.00 | 0.00 | 68 | 1015.7 |
| 20260508092312 | 8 | 95 | 0.0 | 0.0 | 0.00 | 0.00 | 0.00 | 68 | 1015.6 |
| 20260508092204 | 8 | 95 | 0.0 | 0.0 | 0.00 | 0.00 | 0.00 | 68 | 1015.6 |
| 20260508092005 | 9 | 95 | 0.0 | 0.0 | 0.00 | 0.00 | 0.00 | 67 | 1015.7 |
| 20260508091904 | 9 | 95 | 0.0 | 0.0 | 0.00 | 0.00 | 0.00 | 67 | 1015.6 |
| 20260508091703 | 9 | 95 | 0.0 | 0.0 | 0.00 | 0.00 | 0.00 | 68 | 1015.6 |
| 20260508091604 | 9 | 95 | 0.0 | 0.0 | 0.00 | 0.00 | 0.00 | 68 | 1015.7 |
| 20260508091503 | 9 | 95 | 0.0 | 0.0 | 0.00 | 0.00 | 0.00 | 68 | 1015.6 |
| 20260508091403 | 9 | 94 | 0.0 | 0.0 | 0.00 | 0.00 | 0.00 | 68 | 1015.6 |
| 20260508091304 | 9 | 94 | 0.0 | 0.0 | 0.00 | 0.00 | 0.00 | 68 | 1015.6 |
| 20260508091104 | 9 | 94 | 0.0 | 0.0 | 0.00 | 0.00 | 0.00 | 67 | 1015.5 |
| 20260508090904 | 9 | 94 | 0.0 | 0.0 | 0.00 | 0.00 | 0.00 | 66 | 1015.6 |
| 20260508090804 | 9 | 94 | 0.0 | 0.0 | 0.00 | 0.00 | 0.00 | 66 | 1015.6 |
| 20260508090704 | 9 | 94 | 0.0 | 0.0 | 0.00 | 0.00 | 0.00 | 66 | 1015.6 |
| 20260508090604 | 9 | 94 | 0.0 | 0.0 | 0.00 | 0.00 | 0.00 | 66 | 1015.6 |
| 20260508090504 | 10 | 94 | 0.0 | 0.0 | 0.00 | 0.00 | 0.00 | 65 | 1015.6 |
| 20260508090403 | 10 | 94 | 0.0 | 0.0 | 0.00 | 0.00 | 0.00 | 65 | 1015.6 |
| 20260508090304 | 10 | 94 | 0.0 | 0.0 | 0.00 | 0.00 | 0.00 | 65 | 1015.6 |
| 20260508090204 | 10 | 94 | 0.0 | 0.0 | 0.00 | 0.00 | 0.00 | 65 | 1015.6 |
| 20260508090103 | 10 | 94 | 0.0 | 0.0 | 0.00 | 0.00 | 0.00 | 65 | 1015.6 |
| 20260508090005 | 10 | 94 | 0.0 | 0.0 | 0.00 | 0.00 | 0.00 | 65 | 1015.6 |
| 20260508085903 | 10 | 94 | 0.0 | 0.0 | 0.00 | 0.00 | 0.00 | 65 | 1015.5 |
| 20260508085802 | 10 | 94 | 0.0 | 0.0 | 0.00 | 0.00 | 0.00 | 65 | 1015.5 |
| 20260508085702 | 10 | 94 | 0.0 | 0.0 | 0.00 | 0.00 | 0.00 | 65 | 1015.5 |
| 20260508085602 | 10 | 94 | 0.0 | 0.0 | 0.00 | 0.00 | 0.00 | 65 | 1015.5 |
| 20260508085503 | 10 | 94 | 0.0 | 0.0 | 0.00 | 0.00 | 0.00 | 65 | 1015.5 |
| 20260508085403 | 10 | 94 | 0.0 | 0.0 | 0.00 | 0.00 | 0.00 | 65 | 1015.5 |
| 20260508085306 | 10 | 94 | 0.0 | 0.0 | 0.00 | 0.00 | 0.00 | 65 | 1015.5 |
| 20260508085102 | 10 | 94 | 0.0 | 0.0 | 0.00 | 0.00 | 0.00 | 65 | 1015.4 |
| 20260508085004 | 10 | 94 | 0.0 | 0.0 | 0.00 | 0.00 | 0.00 | 65 | 1015.5 |
| 20260508084902 | 10 | 94 | 0.0 | 0.0 | 0.00 | 0.00 | 0.00 | 65 | 1015.4 |
| 20260508084802 | 10 | 94 | 0.0 | 0.0 | 0.00 | 0.00 | 0.00 | 65 | 1015.5 |
| 20260508084702 | 10 | 94 | 0.0 | 0.0 | 0.00 | 0.00 | 0.00 | 66 | 1015.5 |
| 20260508084603 | 10 | 94 | 0.0 | 0.0 | 0.00 | 0.00 | 0.00 | 66 | 1015.5 |
| 20260508084503 | 10 | 94 | 0.0 | 0.0 | 0.00 | 0.00 | 0.00 | 66 | 1015.5 |
| 20260508084403 | 10 | 94 | 0.0 | 0.0 | 0.00 | 0.00 | 0.00 | 66 | 1015.6 |
| 20260508084302 | 10 | 94 | 0.0 | 0.0 | 0.00 | 0.00 | 0.00 | 65 | 1015.5 |
| 20260508084203 | 10 | 94 | 0.0 | 0.0 | 0.00 | 0.00 | 0.00 | 65 | 1015.6 |
| 20260508084102 | 10 | 94 | 0.0 | 0.0 | 0.00 | 0.00 | 0.00 | 65 | 1015.6 |
| 20260508084004 | 10 | 94 | 0.0 | 0.0 | 0.00 | 0.00 | 0.00 | 65 | 1015.6 |
| 20260508083903 | 10 | 94 | 0.0 | 0.0 | 0.00 | 0.00 | 0.00 | 65 | 1015.6 |
| 20260508083603 | 10 | 99 | 0.0 | 1.6 | 0.00 | 0.00 | 0.00 | 64 | 1015.6 |
| 20260508083506 | 10 | 99 | 0.0 | 1.6 | 0.00 | 0.00 | 0.00 | 64 | 1015.6 |
| 20260508083404 | 10 | 99 | 0.0 | 1.6 | 0.00 | 0.00 | 0.00 | 64 | 1015.6 |
| 20260508083203 | 10 | 99 | 0.0 | 3.2 | 0.00 | 0.00 | 0.00 | 64 | 1015.6 |
| 20260508083104 | 10 | 99 | 0.0 | 3.2 | 0.00 | 0.00 | 0.00 | 64 | 1015.6 |
| 20260508083005 | 10 | 99 | 0.0 | 3.2 | 0.00 | 0.00 | 0.00 | 63 | 1015.6 |
| 20260508082903 | 10 | 99 | 0.0 | 3.2 | 0.00 | 0.00 | 0.00 | 63 | 1015.6 |
| 20260508082704 | 10 | 147 | 0.0 | 3.2 | 0.00 | 0.00 | 0.00 | 63 | 1015.6 |
| 20260508082604 | 10 | 147 | 0.0 | 3.2 | 0.00 | 0.00 | 0.00 | 62 | 1015.5 |
| 20260508082504 | 10 | 159 | 0.0 | 3.2 | 0.00 | 0.00 | 0.00 | 61 | 1015.6 |
| 20260508082403 | 11 | 156 | 0.0 | 3.2 | 0.00 | 0.00 | 0.00 | 60 | 1015.6 |
| 20260508082306 | 11 | 279 | 0.0 | 1.6 | 0.00 | 0.00 | 0.00 | 59 | 1015.6 |
| 20260508082202 | 11 | 279 | 0.0 | 1.6 | 0.00 | 0.00 | 0.00 | 59 | 1015.5 |
| 20260508082102 | 11 | 279 | 0.0 | 1.6 | 0.00 | 0.00 | 0.00 | 59 | 1015.6 |
| 20260508081903 | 11 | 281 | 0.0 | 0.0 | 0.00 | 0.00 | 0.00 | 58 | 1015.5 |
| 20260508081803 | 11 | 281 | 0.0 | 0.0 | 0.00 | 0.00 | 0.00 | 58 | 1015.5 |
| 20260508081703 | 11 | 280 | 0.0 | 0.0 | 0.00 | 0.00 | 0.00 | 57 | 1015.5 |
| 20260508081602 | 11 | 280 | 0.0 | 0.0 | 0.00 | 0.00 | 0.00 | 57 | 1015.4 |
| 20260508081502 | 11 | 280 | 0.0 | 0.0 | 0.00 | 0.00 | 0.00 | 58 | 1015.4 |
| 20260508081403 | 11 | 280 | 0.0 | 0.0 | 0.00 | 0.00 | 0.00 | 58 | 1015.5 |
| 20260508081302 | 11 | 280 | 0.0 | 0.0 | 0.00 | 0.00 | 0.00 | 58 | 1015.4 |
| 20260508081202 | 11 | 280 | 0.0 | 0.0 | 0.00 | 0.00 | 0.00 | 58 | 1015.4 |
| 20260508081003 | 11 | 280 | 0.0 | 0.0 | 0.00 | 0.00 | 0.00 | 58 | 1015.4 |
| 20260508080802 | 11 | 280 | 0.0 | 0.0 | 0.00 | 0.00 | 0.00 | 57 | 1015.4 |
| 20260508080702 | 11 | 280 | 0.0 | 0.0 | 0.00 | 0.00 | 0.00 | 57 | 1015.5 |
| 20260508080602 | 11 | 280 | 0.0 | 0.0 | 0.00 | 0.00 | 0.00 | 56 | 1015.4 |
| 20260508080503 | 11 | 280 | 0.0 | 0.0 | 0.00 | 0.00 | 0.00 | 56 | 1015.5 |
| 20260508080403 | 11 | 281 | 0.0 | 0.0 | 0.00 | 0.00 | 0.00 | 56 | 1015.5 |
| 20260508080203 | 11 | 280 | 0.0 | 0.0 | 0.00 | 0.00 | 0.00 | 56 | 1015.5 |
| 20260508080005 | 12 | 280 | 0.0 | 1.6 | 0.00 | 0.00 | 0.00 | 56 | 1015.5 |
| 20260508075902 | 12 | 280 | 0.0 | 1.6 | 0.00 | 0.00 | 0.00 | 56 | 1015.5 |
| 20260508075802 | 12 | 280 | 0.0 | 1.6 | 0.00 | 0.00 | 0.00 | 56 | 1015.5 |
| 20260508075702 | 12 | 280 | 0.0 | 1.6 | 0.00 | 0.00 | 0.00 | 55 | 1015.5 |
| 20260508075602 | 12 | 280 | 0.0 | 1.6 | 0.00 | 0.00 | 0.00 | 56 | 1015.4 |
| 20260508075502 | 12 | 280 | 0.0 | 1.6 | 0.00 | 0.00 | 0.00 | 56 | 1015.5 |
| 20260508075402 | 12 | 281 | 0.0 | 1.6 | 0.00 | 0.00 | 0.00 | 56 | 1015.5 |
| 20260508075308 | 12 | 280 | 0.0 | 1.6 | 0.00 | 0.00 | 0.00 | 56 | 1015.6 |
| 20260508075203 | 12 | 280 | 0.0 | 1.6 | 0.00 | 0.00 | 0.00 | 56 | 1015.5 |
| 20260508075003 | 12 | 280 | 0.0 | 1.6 | 0.00 | 0.00 | 0.00 | 56 | 1015.5 |
| 20260508074902 | 12 | 280 | 0.0 | 0.0 | 0.00 | 0.00 | 0.00 | 55 | 1015.4 |
| 20260508074803 | 12 | 280 | 0.0 | 1.6 | 0.00 | 0.00 | 0.00 | 55 | 1015.5 |
| 20260508074702 | 12 | 280 | 0.0 | 1.6 | 0.00 | 0.00 | 0.00 | 55 | 1015.4 |
| 20260508074602 | 12 | 280 | 0.0 | 1.6 | 0.00 | 0.00 | 0.00 | 55 | 1015.5 |
| 20260508074502 | 12 | 281 | 0.0 | 1.6 | 0.00 | 0.00 | 0.00 | 55 | 1015.4 |
| 20260508074402 | 12 | 280 | 0.0 | 1.6 | 0.00 | 0.00 | 0.00 | 55 | 1015.4 |
| 20260508074203 | 12 | 280 | 0.0 | 1.6 | 0.00 | 0.00 | 0.00 | 55 | 1015.4 |
| 20260508074103 | 12 | 280 | 0.0 | 1.6 | 0.00 | 0.00 | 0.00 | 55 | 1015.3 |
| 20260508074004 | 12 | 280 | 0.0 | 1.6 | 0.00 | 0.00 | 0.00 | 56 | 1015.3 |
| 20260508073902 | 12 | 280 | 0.0 | 1.6 | 0.00 | 0.00 | 0.00 | 56 | 1015.4 |
| 20260508073802 | 11 | 280 | 0.0 | 1.6 | 0.00 | 0.00 | 0.00 | 56 | 1015.3 |
| 20260508073503 | 11 | 280 | 0.0 | 0.0 | 0.00 | 0.00 | 0.00 | 58 | 1015.4 |
| 20260508073402 | 11 | 280 | 0.0 | 0.0 | 0.00 | 0.00 | 0.00 | 58 | 1015.4 |
| 20260508073301 | 11 | 280 | 0.0 | 0.0 | 0.00 | 0.00 | 0.00 | 58 | 1015.3 |
| 20260508073202 | 11 | 280 | 0.0 | 0.0 | 0.00 | 0.00 | 0.00 | 59 | 1015.4 |
| 20260508073101 | 11 | 280 | 0.0 | 0.0 | 0.00 | 0.00 | 0.00 | 60 | 1015.4 |
| 20260508073002 | 11 | 280 | 0.0 | 0.0 | 0.00 | 0.00 | 0.00 | 60 | 1015.3 |
| 20260508072902 | 11 | 280 | 0.0 | 0.0 | 0.00 | 0.00 | 0.00 | 60 | 1015.3 |
| 20260508072802 | 11 | 280 | 0.0 | 0.0 | 0.00 | 0.00 | 0.00 | 61 | 1015.4 |
| 20260508072701 | 11 | 280 | 0.0 | 0.0 | 0.00 | 0.00 | 0.00 | 60 | 1015.4 |
| 20260508072602 | 11 | 280 | 0.0 | 0.0 | 0.00 | 0.00 | 0.00 | 61 | 1015.3 |
| 20260508072501 | 11 | 280 | 0.0 | 0.0 | 0.00 | 0.00 | 0.00 | 61 | 1015.4 |
| 20260508072403 | 11 | 280 | 0.0 | 0.0 | 0.00 | 0.00 | 0.00 | 61 | 1015.4 |
| 20260508072301 | 11 | 280 | 0.0 | 0.0 | 0.00 | 0.00 | 0.00 | 61 | 1015.4 |
| 20260508072201 | 11 | 280 | 0.0 | 0.0 | 0.00 | 0.00 | 0.00 | 60 | 1015.4 |
| 20260508072100 | 11 | 280 | 0.0 | 0.0 | 0.00 | 0.00 | 0.00 | 60 | 1015.4 |
| 20260508072003 | 11 | 280 | 0.0 | 0.0 | 0.00 | 0.00 | 0.00 | 60 | 1015.4 |
| 20260508071901 | 11 | 280 | 0.0 | 0.0 | 0.00 | 0.00 | 0.00 | 60 | 1015.4 |
| 20260508071800 | 11 | 280 | 0.0 | 0.0 | 0.00 | 0.00 | 0.00 | 60 | 1015.4 |
| 20260508071701 | 11 | 280 | 0.0 | 0.0 | 0.00 | 0.00 | 0.00 | 60 | 1015.5 |
| 20260508071601 | 11 | 280 | 0.0 | 0.0 | 0.00 | 0.00 | 0.00 | 60 | 1015.4 |
| 20260508071501 | 11 | 280 | 0.0 | 0.0 | 0.00 | 0.00 | 0.00 | 60 | 1015.4 |
| 20260508071302 | 11 | 280 | 0.0 | 0.0 | 0.00 | 0.00 | 0.00 | 59 | 1015.4 |
| 20260508071201 | 11 | 280 | 0.0 | 0.0 | 0.00 | 0.00 | 0.00 | 59 | 1015.4 |
| 20260508071101 | 11 | 280 | 0.0 | 0.0 | 0.00 | 0.00 | 0.00 | 59 | 1015.3 |
| 20260508071002 | 11 | 280 | 0.0 | 0.0 | 0.00 | 0.00 | 0.00 | 59 | 1015.4 |
| 20260508070601 | 11 | 280 | 0.0 | 0.0 | 0.00 | 0.00 | 0.00 | 59 | 1015.3 |
| 20260508070401 | 11 | 280 | 0.0 | 0.0 | 0.00 | 0.00 | 0.00 | 59 | 1015.4 |
| 20260508070302 | 11 | 280 | 0.0 | 0.0 | 0.00 | 0.00 | 0.00 | 59 | 1015.4 |
| 20260508070101 | 11 | 280 | 0.0 | 0.0 | 0.00 | 0.00 | 0.00 | 58 | 1015.4 |
| 20260508070005 | 12 | 280 | 0.0 | 0.0 | 0.00 | 0.00 | 0.00 | 58 | 1015.4 |
| 20260508065802 | 12 | 280 | 0.0 | 0.0 | 0.00 | 0.00 | 0.00 | 58 | 1015.3 |
| 20260508065602 | 12 | 280 | 0.0 | 0.0 | 0.00 | 0.00 | 0.00 | 57 | 1015.4 |
| 20260508065502 | 12 | 280 | 0.0 | 0.0 | 0.00 | 0.00 | 0.00 | 57 | 1015.4 |
| 20260508065306 | 12 | 280 | 0.0 | 0.0 | 0.00 | 0.00 | 0.00 | 57 | 1015.4 |
| 20260508065202 | 12 | 280 | 0.0 | 0.0 | 0.00 | 0.00 | 0.00 | 57 | 1015.4 |
| 20260508065058 | 12 | 280 | 0.0 | 0.0 | 0.00 | 0.00 | 0.00 | 56 | 1015.4 |
| 20260508064959 | 12 | 280 | 0.0 | 0.0 | 0.00 | 0.00 | 0.00 | 56 | 1015.3 |
| 20260508064900 | 12 | 280 | 0.0 | 0.0 | 0.00 | 0.00 | 0.00 | 55 | 1015.3 |
| 20260508064759 | 12 | 280 | 0.0 | 0.0 | 0.00 | 0.00 | 0.00 | 55 | 1015.3 |
| 20260508064600 | 12 | 280 | 0.0 | 0.0 | 0.00 | 0.00 | 0.00 | 55 | 1015.2 |
| 20260508064502 | 12 | 280 | 0.0 | 0.0 | 0.00 | 0.00 | 0.00 | 54 | 1015.3 |
| 20260508064359 | 12 | 280 | 0.0 | 0.0 | 0.00 | 0.00 | 0.00 | 54 | 1015.2 |
| 20260508064258 | 12 | 280 | 0.0 | 0.0 | 0.00 | 0.00 | 0.00 | 54 | 1015.2 |
| 20260508064158 | 12 | 280 | 0.0 | 0.0 | 0.00 | 0.00 | 0.00 | 54 | 1015.2 |
| 20260508064039 | 12 | 280 | 0.0 | 1.6 | 0.00 | 0.00 | 0.00 | 54 | 1015.2 |
| 20260508063933 | 12 | 280 | 0.0 | 1.6 | 0.00 | 0.00 | 0.00 | 54 | 1015.2 |
| 20260508063827 | 12 | 280 | 0.0 | 1.6 | 0.00 | 0.00 | 0.00 | 54 | 1015.3 |
| 20260508063720 | 12 | 280 | 0.0 | 1.6 | 0.00 | 0.00 | 0.00 | 54 | 1015.2 |
| 20260508063614 | 12 | 280 | 0.0 | 1.6 | 0.00 | 0.00 | 0.00 | 54 | 1015.2 |
| 20260508063259 | 13 | 280 | 0.0 | 1.6 | 0.00 | 0.00 | 0.00 | 54 | 1015.1 |
| 20260508063159 | 13 | 280 | 0.0 | 1.6 | 0.00 | 0.00 | 0.00 | 54 | 1015.1 |
| 20260508063124 | 13 | 280 | 0.0 | 1.6 | 0.00 | 0.00 | 0.00 | 54 | 1015.1 |
| 20260508063026 | 13 | 280 | 0.0 | 1.6 | 0.00 | 0.00 | 0.00 | 54 | 1015.1 |
| 20260508062759 | 13 | 280 | 0.0 | 1.6 | 0.00 | 0.00 | 0.00 | 55 | 1015.0 |
| 20260508062659 | 13 | 280 | 0.0 | 1.6 | 0.00 | 0.00 | 0.00 | 54 | 1015.1 |
| 20260508062559 | 13 | 280 | 0.0 | 1.6 | 0.00 | 0.00 | 0.00 | 54 | 1015.1 |
| 20260508062459 | 13 | 280 | 0.0 | 1.6 | 0.00 | 0.00 | 0.00 | 55 | 1015.1 |
| 20260508062359 | 12 | 280 | 0.0 | 1.6 | 0.00 | 0.00 | 0.00 | 55 | 1015.0 |
| 20260508062258 | 13 | 280 | 0.0 | 0.0 | 0.00 | 0.00 | 0.00 | 55 | 1015.1 |
| 20260508062201 | 12 | 280 | 0.0 | 0.0 | 0.00 | 0.00 | 0.00 | 55 | 1015.0 |
| 20260508062058 | 12 | 280 | 0.0 | 0.0 | 0.00 | 0.00 | 0.00 | 54 | 1015.1 |
| 20260508062000 | 13 | 280 | 0.0 | 0.0 | 0.00 | 0.00 | 0.00 | 54 | 1015.1 |
| 20260508061938 | 12 | 280 | 0.0 | 0.0 | 0.00 | 0.00 | 0.00 | 54 | 1015.1 |
| 20260508061658 | 13 | 280 | 0.0 | 0.0 | 0.00 | 0.00 | 0.00 | 54 | 1015.1 |
| 20260508061503 | 13 | 280 | 0.0 | 0.0 | 0.00 | 0.00 | 0.00 | 54 | 1015.1 |
| 20260508061358 | 13 | 280 | 0.0 | 1.6 | 0.00 | 0.00 | 0.00 | 54 | 1015.1 |
| 20260508061259 | 13 | 280 | 0.0 | 1.6 | 0.00 | 0.00 | 0.00 | 55 | 1015.2 |
| 20260508061158 | 13 | 280 | 0.0 | 1.6 | 0.00 | 0.00 | 0.00 | 55 | 1015.1 |
| 20260508061039 | 13 | 280 | 0.0 | 1.6 | 0.00 | 0.00 | 0.00 | 54 | 1015.2 |
| 20260508060932 | 13 | 280 | 0.0 | 1.6 | 0.00 | 0.00 | 0.00 | 54 | 1015.1 |
| 20260508060826 | 13 | 280 | 0.0 | 1.6 | 0.00 | 0.00 | 0.00 | 55 | 1015.1 |
| 20260508060721 | 13 | 280 | 0.0 | 1.6 | 0.00 | 0.00 | 0.00 | 55 | 1015.0 |
| 20260508060614 | 13 | 280 | 0.0 | 1.6 | 0.00 | 0.00 | 0.00 | 55 | 1015.1 |
| 20260508060410 | 13 | 280 | 0.0 | 0.0 | 0.00 | 0.00 | 0.00 | 55 | 1015.1 |
| 20260508060259 | 13 | 280 | 0.0 | 0.0 | 0.00 | 0.00 | 0.00 | 55 | 1015.1 |
| 20260508060203 | 13 | 280 | 0.0 | 1.6 | 0.00 | 0.00 | 0.00 | 54 | 1015.1 |
| 20260508060006 | 13 | 280 | 0.0 | 1.6 | 0.00 | 0.00 | 0.00 | 55 | 1015.1 |
| 20260508055803 | 13 | 280 | 0.0 | 1.6 | 0.00 | 0.00 | 0.00 | 54 | 1015.1 |
| 20260508055602 | 13 | 280 | 0.0 | 1.6 | 0.00 | 0.00 | 0.00 | 54 | 1015.1 |
| 20260508055403 | 13 | 280 | 0.0 | 1.6 | 0.00 | 0.00 | 0.00 | 54 | 1015.0 |
| 20260508055306 | 13 | 280 | 0.0 | 1.6 | 0.00 | 0.00 | 0.00 | 54 | 1015.1 |
| 20260508055202 | 13 | 280 | 0.0 | 1.6 | 0.00 | 0.00 | 0.00 | 54 | 1015.2 |
| 20260508055102 | 13 | 280 | 0.0 | 1.6 | 0.00 | 0.00 | 0.00 | 54 | 1015.2 |
| 20260508055004 | 13 | 280 | 0.0 | 1.6 | 0.00 | 0.00 | 0.00 | 54 | 1015.2 |
| 20260508054902 | 13 | 276 | 0.0 | 1.6 | 0.00 | 0.00 | 0.00 | 54 | 1015.2 |
| 20260508054802 | 13 | 276 | 0.0 | 1.6 | 0.00 | 0.00 | 0.00 | 54 | 1015.0 |
| 20260508054703 | 13 | 275 | 0.0 | 1.6 | 0.00 | 0.00 | 0.00 | 54 | 1015.0 |
| 20260508054402 | 13 | 276 | 0.0 | 1.6 | 0.00 | 0.00 | 0.00 | 54 | 1015.2 |
| 20260508054303 | 13 | 303 | 0.0 | 1.6 | 0.00 | 0.00 | 0.00 | 54 | 1015.1 |
| 20260508054203 | 13 | 303 | 0.0 | 1.6 | 0.00 | 0.00 | 0.00 | 54 | 1015.2 |
| 20260508054102 | 13 | 14 | 0.0 | 1.6 | 0.00 | 0.00 | 0.00 | 54 | 1015.2 |
| 20260508054004 | 13 | 14 | 0.0 | 1.6 | 0.00 | 0.00 | 0.00 | 54 | 1015.1 |
| 20260508053902 | 13 | 14 | 0.0 | 1.6 | 0.00 | 0.00 | 0.00 | 54 | 1015.2 |
| 20260508053803 | 13 | 15 | 0.0 | 1.6 | 0.00 | 0.00 | 0.00 | 54 | 1015.3 |
| 20260508053702 | 13 | 15 | 0.0 | 0.0 | 0.00 | 0.00 | 0.00 | 54 | 1015.2 |
| 20260508053603 | 13 | 15 | 0.0 | 0.0 | 0.00 | 0.00 | 0.00 | 53 | 1015.2 |
| 20260508053502 | 13 | 15 | 0.0 | 0.0 | 0.00 | 0.00 | 0.00 | 53 | 1015.2 |
| 20260508053402 | 13 | 15 | 0.0 | 0.0 | 0.00 | 0.00 | 0.00 | 53 | 1015.2 |
| 20260508053302 | 13 | 15 | 0.0 | 1.6 | 0.00 | 0.00 | 0.00 | 53 | 1015.2 |
| 20260508053202 | 13 | 15 | 0.0 | 1.6 | 0.00 | 0.00 | 0.00 | 53 | 1015.1 |
| 20260508053103 | 13 | 15 | 0.0 | 1.6 | 0.00 | 0.00 | 0.00 | 53 | 1015.2 |
| 20260508053003 | 13 | 15 | 0.0 | 1.6 | 0.00 | 0.00 | 0.00 | 52 | 1015.2 |
| 20260508052903 | 13 | 15 | 0.0 | 1.6 | 0.00 | 0.00 | 0.00 | 51 | 1015.3 |
| 20260508052802 | 14 | 15 | 0.0 | 1.6 | 0.00 | 0.00 | 0.00 | 51 | 1015.1 |
| 20260508052402 | 14 | 15 | 0.0 | 1.6 | 0.00 | 0.00 | 0.00 | 51 | 1015.2 |
| 20260508052202 | 14 | 15 | 0.0 | 1.6 | 0.00 | 0.00 | 0.00 | 50 | 1015.2 |
| 20260508052103 | 15 | 15 | 0.0 | 1.6 | 0.00 | 0.00 | 0.00 | 49 | 1015.2 |
| 20260508051903 | 15 | 15 | 0.0 | 1.6 | 0.00 | 0.00 | 0.00 | 49 | 1015.2 |
| 20260508051803 | 15 | 15 | 0.0 | 0.0 | 0.00 | 0.00 | 0.00 | 49 | 1015.1 |
| 20260508051703 | 15 | 15 | 0.0 | 0.0 | 0.00 | 0.00 | 0.00 | 47 | 1015.1 |
| 20260508051602 | 15 | 15 | 0.0 | 0.0 | 0.00 | 0.00 | 0.00 | 47 | 1015.1 |
| 20260508051403 | 15 | 15 | 0.0 | 0.0 | 0.00 | 0.00 | 0.00 | 46 | 1015.1 |
| 20260508051302 | 15 | 15 | 0.0 | 0.0 | 0.00 | 0.00 | 0.00 | 46 | 1015.0 |
| 20260508051203 | 15 | 15 | 0.0 | 0.0 | 0.00 | 0.00 | 0.00 | 46 | 1015.1 |
| 20260508051102 | 15 | 15 | 0.0 | 1.6 | 0.00 | 0.00 | 0.00 | 46 | 1015.0 |
| 20260508051004 | 15 | 15 | 0.0 | 1.6 | 0.00 | 0.00 | 0.00 | 46 | 1015.0 |
| 20260508050903 | 15 | 15 | 0.0 | 1.6 | 0.00 | 0.00 | 0.00 | 45 | 1015.0 |
| 20260508050704 | 15 | 15 | 0.0 | 1.6 | 0.00 | 0.00 | 0.00 | 45 | 1014.9 |
| 20260508050604 | 15 | 15 | 0.0 | 1.6 | 0.00 | 0.00 | 0.00 | 45 | 1014.9 |
| 20260508050503 | 15 | 15 | 0.0 | 1.6 | 0.00 | 0.00 | 0.00 | 45 | 1014.9 |
| 20260508050404 | 15 | 15 | 0.0 | 1.6 | 0.00 | 0.00 | 0.00 | 45 | 1014.8 |
| 20260508050304 | 15 | 15 | 0.0 | 1.6 | 0.00 | 0.00 | 0.00 | 45 | 1014.8 |
| 20260508050204 | 15 | 280 | 0.0 | 1.6 | 0.00 | 0.00 | 0.00 | 46 | 1014.6 |
| 20260508050005 | 15 | 275 | 0.0 | 1.6 | 0.00 | 0.00 | 0.00 | 46 | 1014.7 |
| 20260508045902 | 15 | 275 | 0.0 | 1.6 | 0.00 | 0.00 | 0.00 | 46 | 1014.6 |
| 20260508045802 | 15 | 275 | 0.0 | 1.6 | 0.00 | 0.00 | 0.00 | 46 | 1014.6 |
| 20260508045704 | 15 | 264 | 0.0 | 1.6 | 0.00 | 0.00 | 0.00 | 47 | 1014.5 |
| 20260508045604 | 15 | 257 | 0.0 | 1.6 | 0.00 | 0.00 | 0.00 | 47 | 1014.6 |
| 20260508045503 | 15 | 245 | 0.0 | 1.6 | 0.00 | 0.00 | 0.00 | 47 | 1014.5 |
| 20260508045403 | 15 | 245 | 0.0 | 1.6 | 0.00 | 0.00 | 0.00 | 47 | 1014.6 |
| 20260508045306 | 15 | 245 | 0.0 | 1.6 | 0.00 | 0.00 | 0.00 | 47 | 1014.5 |
| 20260508045203 | 15 | 245 | 0.0 | 1.6 | 0.00 | 0.00 | 0.00 | 47 | 1014.6 |
| 20260508045104 | 15 | 245 | 0.0 | 1.6 | 0.00 | 0.00 | 0.00 | 47 | 1014.6 |
| 20260508045004 | 15 | 245 | 0.0 | 1.6 | 0.00 | 0.00 | 0.00 | 47 | 1014.6 |
| 20260508044903 | 15 | 245 | 0.0 | 1.6 | 0.00 | 0.00 | 0.00 | 47 | 1014.5 |
| 20260508044703 | 15 | 245 | 0.0 | 0.0 | 0.00 | 0.00 | 0.00 | 46 | 1014.6 |
| 20260508044602 | 15 | 245 | 0.0 | 0.0 | 0.00 | 0.00 | 0.00 | 46 | 1014.6 |
| 20260508044502 | 15 | 245 | 0.0 | 1.6 | 0.00 | 0.00 | 0.00 | 47 | 1014.6 |
| 20260508044403 | 16 | 245 | 0.0 | 1.6 | 0.00 | 0.00 | 0.00 | 47 | 1014.5 |
| 20260508044302 | 16 | 245 | 0.0 | 1.6 | 0.00 | 0.00 | 0.00 | 46 | 1014.5 |
| 20260508044203 | 16 | 245 | 0.0 | 1.6 | 0.00 | 0.00 | 0.00 | 46 | 1014.5 |
| 20260508044102 | 16 | 245 | 0.0 | 1.6 | 0.00 | 0.00 | 0.00 | 46 | 1014.6 |
| 20260508044004 | 16 | 245 | 0.0 | 1.6 | 0.00 | 0.00 | 0.00 | 46 | 1014.5 |
| 20260508043903 | 16 | 245 | 0.0 | 1.6 | 0.00 | 0.00 | 0.00 | 46 | 1014.5 |
| 20260508043702 | 16 | 245 | 0.0 | 1.6 | 0.00 | 0.00 | 0.00 | 46 | 1014.5 |
| 20260508043502 | 16 | 245 | 0.0 | 1.6 | 0.00 | 0.00 | 0.00 | 46 | 1014.5 |
| 20260508043402 | 16 | 245 | 0.0 | 1.6 | 0.00 | 0.00 | 0.00 | 46 | 1014.6 |
| 20260508043302 | 16 | 245 | 0.0 | 1.6 | 0.00 | 0.00 | 0.00 | 46 | 1014.5 |
| 20260508043203 | 16 | 245 | 0.0 | 1.6 | 0.00 | 0.00 | 0.00 | 46 | 1014.5 |
| 20260508043103 | 16 | 245 | 0.0 | 1.6 | 0.00 | 0.00 | 0.00 | 46 | 1014.5 |
| 20260508043004 | 16 | 245 | 0.0 | 1.6 | 0.00 | 0.00 | 0.00 | 46 | 1014.5 |
| 20260508042902 | 16 | 245 | 0.0 | 1.6 | 0.00 | 0.00 | 0.00 | 46 | 1014.6 |
| 20260508042802 | 16 | 245 | 0.0 | 1.6 | 0.00 | 0.00 | 0.00 | 46 | 1014.5 |
| 20260508042703 | 16 | 245 | 0.0 | 1.6 | 0.00 | 0.00 | 0.00 | 46 | 1014.5 |
| 20260508042503 | 16 | 245 | 0.0 | 0.0 | 0.00 | 0.00 | 0.00 | 46 | 1014.6 |
| 20260508042403 | 16 | 245 | 0.0 | 0.0 | 0.00 | 0.00 | 0.00 | 46 | 1014.5 |
| 20260508042203 | 16 | 245 | 0.0 | 1.6 | 0.00 | 0.00 | 0.00 | 46 | 1014.5 |
| 20260508042103 | 16 | 245 | 0.0 | 1.6 | 0.00 | 0.00 | 0.00 | 46 | 1014.6 |
| 20260508042004 | 16 | 245 | 0.0 | 1.6 | 0.00 | 0.00 | 0.00 | 46 | 1014.6 |
| 20260508041904 | 16 | 245 | 0.0 | 1.6 | 0.00 | 0.00 | 0.00 | 46 | 1014.6 |
| 20260508041803 | 16 | 245 | 0.0 | 1.6 | 0.00 | 0.00 | 0.00 | 46 | 1014.6 |
| 20260508041603 | 16 | 245 | 0.0 | 1.6 | 0.00 | 0.00 | 0.00 | 46 | 1014.6 |
| 20260508041502 | 16 | 245 | 0.0 | 1.6 | 0.00 | 0.00 | 0.00 | 46 | 1014.6 |
| 20260508041303 | 16 | 245 | 0.0 | 1.6 | 0.00 | 0.00 | 0.00 | 46 | 1014.7 |
| 20260508041202 | 16 | 245 | 0.0 | 1.6 | 0.00 | 0.00 | 0.00 | 46 | 1014.6 |
| 20260508041004 | 16 | 245 | 0.0 | 1.6 | 0.00 | 0.00 | 0.00 | 46 | 1014.6 |
| 20260508040902 | 16 | 245 | 0.0 | 1.6 | 0.00 | 0.00 | 0.00 | 46 | 1014.6 |
| 20260508040803 | 16 | 245 | 0.0 | 1.6 | 0.00 | 0.00 | 0.00 | 46 | 1014.6 |
| 20260508040703 | 16 | 245 | 0.0 | 1.6 | 0.00 | 0.00 | 0.00 | 46 | 1014.6 |
| 20260508040603 | 15 | 245 | 0.0 | 1.6 | 0.00 | 0.00 | 0.00 | 47 | 1014.5 |
| 20260508040503 | 15 | 245 | 0.0 | 1.6 | 0.00 | 0.00 | 0.00 | 47 | 1014.6 |
| 20260508040403 | 15 | 245 | 0.0 | 1.6 | 0.00 | 0.00 | 0.00 | 47 | 1014.6 |
| 20260508040203 | 15 | 245 | 0.0 | 1.6 | 0.00 | 0.00 | 0.00 | 48 | 1014.6 |
| 20260508040104 | 15 | 245 | 0.0 | 1.6 | 0.00 | 0.00 | 0.00 | 48 | 1014.6 |
| 20260508040005 | 15 | 245 | 0.0 | 1.6 | 0.00 | 0.00 | 0.00 | 48 | 1014.5 |
| 20260508035902 | 15 | 244 | 0.0 | 0.0 | 0.00 | 0.00 | 0.00 | 49 | 1014.6 |
| 20260508035803 | 15 | 245 | 0.0 | 0.0 | 0.00 | 0.00 | 0.00 | 49 | 1014.6 |
| 20260508035702 | 15 | 244 | 0.0 | 0.0 | 0.00 | 0.00 | 0.00 | 48 | 1014.5 |
| 20260508035603 | 15 | 244 | 0.0 | 0.0 | 0.00 | 0.00 | 0.00 | 48 | 1014.7 |
| 20260508035502 | 15 | 245 | 0.0 | 0.0 | 0.00 | 0.00 | 0.00 | 48 | 1014.6 |
| 20260508035403 | 15 | 245 | 0.0 | 0.0 | 0.00 | 0.00 | 0.00 | 48 | 1014.6 |
| 20260508035306 | 15 | 245 | 0.0 | 0.0 | 0.00 | 0.00 | 0.00 | 47 | 1014.6 |
| 20260508035203 | 15 | 245 | 0.0 | 0.0 | 0.00 | 0.00 | 0.00 | 47 | 1014.6 |
| 20260508035003 | 15 | 244 | 0.0 | 0.0 | 0.00 | 0.00 | 0.00 | 47 | 1014.6 |
| 20260508034902 | 15 | 245 | 0.0 | 0.0 | 0.00 | 0.00 | 0.00 | 47 | 1014.6 |
| 20260508034802 | 15 | 244 | 0.0 | 0.0 | 0.00 | 0.00 | 0.00 | 47 | 1014.6 |
| 20260508034702 | 16 | 244 | 0.0 | 0.0 | 0.00 | 0.00 | 0.00 | 47 | 1014.6 |
| 20260508034302 | 16 | 245 | 0.0 | 0.0 | 0.00 | 0.00 | 0.00 | 46 | 1014.6 |
| 20260508034203 | 16 | 245 | 0.0 | 0.0 | 0.00 | 0.00 | 0.00 | 45 | 1014.6 |
| 20260508034102 | 16 | 245 | 0.0 | 0.0 | 0.00 | 0.00 | 0.00 | 46 | 1014.6 |
| 20260508034003 | 16 | 244 | 0.0 | 0.0 | 0.00 | 0.00 | 0.00 | 45 | 1014.7 |
| 20260508033902 | 16 | 244 | 0.0 | 0.0 | 0.00 | 0.00 | 0.00 | 45 | 1014.6 |
| 20260508033702 | 16 | 244 | 0.0 | 0.0 | 0.00 | 0.00 | 0.00 | 45 | 1014.5 |
| 20260508033603 | 16 | 244 | 0.0 | 0.0 | 0.00 | 0.00 | 0.00 | 45 | 1014.5 |
| 20260508033503 | 16 | 244 | 0.0 | 0.0 | 0.00 | 0.00 | 0.00 | 45 | 1014.5 |
| 20260508033402 | 16 | 244 | 0.0 | 0.0 | 0.00 | 0.00 | 0.00 | 45 | 1014.5 |
| 20260508033303 | 16 | 245 | 0.0 | 0.0 | 0.00 | 0.00 | 0.00 | 45 | 1014.5 |
| 20260508033202 | 16 | 244 | 0.0 | 0.0 | 0.00 | 0.00 | 0.00 | 45 | 1014.5 |
| 20260508033103 | 16 | 244 | 0.0 | 0.0 | 0.00 | 0.00 | 0.00 | 45 | 1014.5 |
| 20260508033003 | 16 | 244 | 0.0 | 0.0 | 0.00 | 0.00 | 0.00 | 45 | 1014.5 |
| 20260508032902 | 16 | 245 | 0.0 | 0.0 | 0.00 | 0.00 | 0.00 | 45 | 1014.4 |
| 20260508032802 | 16 | 245 | 0.0 | 0.0 | 0.00 | 0.00 | 0.00 | 45 | 1014.4 |
| 20260508032602 | 16 | 244 | 0.0 | 0.0 | 0.00 | 0.00 | 0.00 | 44 | 1014.5 |
| 20260508032503 | 16 | 244 | 0.0 | 0.0 | 0.00 | 0.00 | 0.00 | 44 | 1014.4 |
| 20260508032402 | 16 | 245 | 0.0 | 1.6 | 0.00 | 0.00 | 0.00 | 44 | 1014.5 |
| 20260508032306 | 16 | 244 | 0.0 | 1.6 | 0.00 | 0.00 | 0.00 | 43 | 1014.5 |
| 20260508032202 | 16 | 245 | 0.0 | 1.6 | 0.00 | 0.00 | 0.00 | 43 | 1014.3 |
| 20260508032103 | 16 | 244 | 0.0 | 1.6 | 0.00 | 0.00 | 0.00 | 44 | 1014.4 |
| 20260508032004 | 16 | 245 | 0.0 | 1.6 | 0.00 | 0.00 | 0.00 | 44 | 1014.4 |
| 20260508031902 | 16 | 245 | 0.0 | 1.6 | 0.00 | 0.00 | 0.00 | 44 | 1014.4 |
| 20260508031702 | 16 | 244 | 0.0 | 1.6 | 0.00 | 0.00 | 0.00 | 44 | 1014.4 |
| 20260508031602 | 16 | 244 | 0.0 | 1.6 | 0.00 | 0.00 | 0.00 | 43 | 1014.3 |
| 20260508031403 | 16 | 244 | 0.0 | 0.0 | 0.00 | 0.00 | 0.00 | 43 | 1014.3 |
| 20260508031302 | 16 | 245 | 0.0 | 0.0 | 0.00 | 0.00 | 0.00 | 42 | 1014.3 |
| 20260508031202 | 16 | 244 | 0.0 | 0.0 | 0.00 | 0.00 | 0.00 | 42 | 1014.3 |
| 20260508031102 | 17 | 244 | 0.0 | 0.0 | 0.00 | 0.00 | 0.00 | 42 | 1014.4 |
| 20260508030902 | 17 | 245 | 0.0 | 0.0 | 0.00 | 0.00 | 0.00 | 43 | 1014.3 |
| 20260508030803 | 17 | 245 | 0.0 | 0.0 | 0.00 | 0.00 | 0.00 | 43 | 1014.3 |
| 20260508030603 | 17 | 245 | 0.0 | 0.0 | 0.00 | 0.00 | 0.00 | 43 | 1014.2 |
| 20260508030503 | 17 | 244 | 0.0 | 0.0 | 0.00 | 0.00 | 0.00 | 43 | 1014.2 |
| 20260508030203 | 17 | 245 | 0.0 | 0.0 | 0.00 | 0.00 | 0.00 | 42 | 1014.2 |
| 20260508030103 | 17 | 244 | 0.0 | 0.0 | 0.00 | 0.00 | 0.00 | 42 | 1014.2 |
| 20260508030013 | 17 | 245 | 0.0 | 0.0 | 0.00 | 0.00 | 0.00 | 42 | 1014.2 |
| 20260508025903 | 17 | 245 | 0.0 | 0.0 | 0.00 | 0.00 | 0.00 | 41 | 1014.2 |
| 20260508025804 | 17 | 245 | 0.0 | 0.0 | 0.00 | 0.00 | 0.00 | 41 | 1014.2 |
| 20260508025604 | 18 | 244 | 0.0 | 0.0 | 0.00 | 0.00 | 0.00 | 40 | 1014.2 |
| 20260508025503 | 18 | 244 | 0.0 | 0.0 | 0.00 | 0.00 | 0.00 | 40 | 1014.2 |
| 20260508025305 | 18 | 244 | 0.0 | 0.0 | 0.00 | 0.00 | 0.00 | 39 | 1014.2 |
| 20260508025004 | 18 | 245 | 0.0 | 1.6 | 0.00 | 0.00 | 0.00 | 38 | 1014.2 |
| 20260508024906 | 18 | 244 | 0.0 | 1.6 | 0.00 | 0.00 | 0.00 | 38 | 1014.1 |
| 20260508024803 | 18 | 245 | 0.0 | 1.6 | 0.00 | 0.00 | 0.00 | 38 | 1014.1 |
| 20260508024702 | 18 | 244 | 0.0 | 1.6 | 0.00 | 0.00 | 0.00 | 38 | 1014.1 |
| 20260508024602 | 18 | 244 | 0.0 | 1.6 | 0.00 | 0.00 | 0.00 | 37 | 1014.1 |
| 20260508024503 | 18 | 245 | 0.0 | 1.6 | 0.00 | 0.00 | 0.00 | 37 | 1014.1 |
| 20260508024403 | 18 | 245 | 0.0 | 1.6 | 0.00 | 0.00 | 0.00 | 37 | 1014.2 |
| 20260508024304 | 18 | 245 | 0.0 | 0.0 | 0.00 | 0.00 | 0.00 | 37 | 1014.1 |
| 20260508024204 | 19 | 244 | 0.0 | 0.0 | 0.00 | 0.00 | 0.00 | 37 | 1014.1 |
| 20260508024102 | 19 | 244 | 0.0 | 0.0 | 0.00 | 0.00 | 0.00 | 37 | 1014.0 |
| 20260508024007 | 19 | 244 | 0.0 | 0.0 | 0.00 | 0.00 | 0.00 | 37 | 1014.1 |
| 20260508023902 | 19 | 244 | 0.0 | 0.0 | 0.00 | 0.00 | 0.00 | 37 | 1014.1 |
| 20260508023703 | 19 | 245 | 0.0 | 0.0 | 0.00 | 0.00 | 0.00 | 37 | 1014.1 |
| 20260508023604 | 19 | 244 | 0.0 | 0.0 | 0.00 | 0.00 | 0.00 | 37 | 1014.1 |
| 20260508023503 | 19 | 244 | 0.0 | 0.0 | 0.00 | 0.00 | 0.00 | 36 | 1014.1 |
| 20260508023402 | 19 | 244 | 0.0 | 0.0 | 0.00 | 0.00 | 0.00 | 36 | 1014.2 |
| 20260508023304 | 19 | 244 | 0.0 | 0.0 | 0.00 | 0.00 | 0.00 | 36 | 1014.0 |
| 20260508023203 | 20 | 245 | 0.0 | 0.0 | 0.00 | 0.00 | 0.00 | 35 | 1014.1 |
| 20260508023103 | 20 | 245 | 0.0 | 0.0 | 0.00 | 0.00 | 0.00 | 35 | 1014.0 |
| 20260508023005 | 20 | 244 | 0.0 | 0.0 | 0.00 | 0.00 | 0.00 | 35 | 1014.1 |
| 20260508022903 | 20 | 245 | 0.0 | 0.0 | 0.00 | 0.00 | 0.00 | 35 | 1014.1 |
| 20260508022802 | 20 | 244 | 0.0 | 0.0 | 0.00 | 0.00 | 0.00 | 35 | 1014.1 |
| 20260508022602 | 20 | 244 | 0.0 | 0.0 | 0.00 | 0.00 | 0.00 | 34 | 1014.1 |
| 20260508022502 | 20 | 244 | 0.0 | 0.0 | 0.00 | 0.00 | 0.00 | 34 | 1014.1 |
| 20260508022403 | 20 | 244 | 0.0 | 0.0 | 0.00 | 0.00 | 0.00 | 34 | 1014.2 |
| 20260508022306 | 20 | 244 | 0.0 | 0.0 | 0.00 | 0.00 | 0.00 | 33 | 1014.0 |
| 20260508022103 | 21 | 245 | 0.0 | 0.0 | 0.00 | 0.00 | 0.00 | 33 | 1014.0 |
| 20260508022003 | 21 | 244 | 0.0 | 0.0 | 0.00 | 0.00 | 0.00 | 33 | 1014.0 |
| 20260508021902 | 21 | 244 | 0.0 | 0.0 | 0.00 | 0.00 | 0.00 | 32 | 1014.0 |
| 20260508021802 | 21 | 244 | 0.0 | 0.0 | 0.00 | 0.00 | 0.00 | 32 | 1013.9 |
| 20260508021702 | 21 | 244 | 0.0 | 0.0 | 0.00 | 0.00 | 0.00 | 32 | 1014.0 |
| 20260508021603 | 21 | 244 | 0.0 | 1.6 | 0.00 | 0.00 | 0.00 | 32 | 1014.0 |
| 20260508021402 | 21 | 244 | 0.0 | 1.6 | 0.00 | 0.00 | 0.00 | 32 | 1014.0 |
| 20260508021203 | 21 | 245 | 0.0 | 1.6 | 0.00 | 0.00 | 0.00 | 32 | 1014.0 |
| 20260508021102 | 21 | 245 | 0.0 | 1.6 | 0.00 | 0.00 | 0.00 | 32 | 1013.9 |
| 20260508021003 | 21 | 245 | 0.0 | 1.6 | 0.00 | 0.00 | 0.00 | 31 | 1013.9 |
| 20260508020902 | 21 | 244 | 0.0 | 1.6 | 0.00 | 0.00 | 0.00 | 31 | 1014.0 |
| 20260508020803 | 21 | 245 | 0.0 | 1.6 | 0.00 | 0.00 | 0.00 | 31 | 1014.0 |
| 20260508020702 | 21 | 244 | 0.0 | 1.6 | 0.00 | 0.00 | 0.00 | 31 | 1014.0 |
| 20260508020503 | 21 | 244 | 0.0 | 1.6 | 0.00 | 0.00 | 0.00 | 31 | 1014.0 |
| 20260508020402 | 21 | 244 | 0.0 | 1.6 | 0.00 | 0.00 | 0.00 | 30 | 1014.0 |
| 20260508020302 | 22 | 244 | 0.0 | 1.6 | 0.00 | 0.00 | 0.00 | 31 | 1013.9 |
| 20260508020202 | 22 | 244 | 0.0 | 1.6 | 0.00 | 0.00 | 0.00 | 30 | 1014.0 |
| 20260508020004 | 22 | 244 | 0.0 | 1.6 | 0.00 | 0.00 | 0.00 | 30 | 1013.9 |
| 20260508015903 | 22 | 244 | 0.0 | 1.6 | 0.00 | 0.00 | 0.00 | 31 | 1014.1 |
| 20260508015802 | 22 | 244 | 0.0 | 1.6 | 0.00 | 0.00 | 0.00 | 31 | 1013.9 |
| 20260508015704 | 22 | 244 | 0.0 | 1.6 | 0.00 | 0.00 | 0.00 | 29 | 1013.9 |
| 20260508015602 | 22 | 244 | 0.0 | 1.6 | 0.00 | 0.00 | 0.00 | 30 | 1014.0 |
| 20260508015505 | 22 | 244 | 0.0 | 1.6 | 0.00 | 0.00 | 0.00 | 30 | 1013.9 |
| 20260508015305 | 22 | 234 | 0.0 | 1.6 | 0.00 | 0.00 | 0.00 | 30 | 1013.9 |
| 20260508015102 | 22 | 234 | 0.0 | 1.6 | 0.00 | 0.00 | 0.00 | 29 | 1013.9 |
| 20260508014902 | 23 | 221 | 0.0 | 3.2 | 0.00 | 0.00 | 0.00 | 29 | 1013.9 |
| 20260508014803 | 23 | 220 | 0.0 | 3.2 | 0.00 | 0.00 | 0.00 | 30 | 1013.9 |
| 20260508014702 | 23 | 175 | 0.0 | 3.2 | 0.00 | 0.00 | 0.00 | 29 | 1013.9 |
| 20260508014602 | 23 | 175 | 0.0 | 3.2 | 0.00 | 0.00 | 0.00 | 29 | 1014.0 |
| 20260508014402 | 23 | 148 | 1.6 | 3.2 | 0.00 | 0.00 | 0.00 | 30 | 1014.0 |
| 20260508014302 | 23 | 149 | 1.6 | 3.2 | 0.00 | 0.00 | 0.00 | 29 | 1013.9 |
| 20260508014202 | 23 | 151 | 1.6 | 3.2 | 0.00 | 0.00 | 0.00 | 30 | 1014.0 |
| 20260508014102 | 23 | 228 | 1.6 | 3.2 | 0.00 | 0.00 | 0.00 | 29 | 1014.0 |
| 20260508014003 | 23 | 244 | 0.0 | 3.2 | 0.00 | 0.00 | 0.00 | 29 | 1014.0 |
| 20260508013903 | 23 | 259 | 0.0 | 3.2 | 0.00 | 0.00 | 0.00 | 29 | 1014.0 |
| 20260508013803 | 23 | 259 | 0.0 | 3.2 | 0.00 | 0.00 | 0.00 | 29 | 1014.0 |
| 20260508013702 | 23 | 248 | 0.0 | 3.2 | 0.00 | 0.00 | 0.00 | 29 | 1014.0 |
| 20260508013603 | 23 | 248 | 0.0 | 3.2 | 0.00 | 0.00 | 0.00 | 30 | 1013.9 |
| 20260508013502 | 23 | 248 | 0.0 | 3.2 | 0.00 | 0.00 | 0.00 | 28 | 1014.0 |
| 20260508013402 | 23 | 236 | 0.0 | 3.2 | 0.00 | 0.00 | 0.00 | 29 | 1013.9 |
| 20260508013302 | 23 | 237 | 0.0 | 3.2 | 0.00 | 0.00 | 0.00 | 28 | 1014.0 |
| 20260508013102 | 23 | 236 | 1.6 | 3.2 | 0.00 | 0.00 | 0.00 | 29 | 1014.0 |
| 20260508013005 | 23 | 236 | 1.6 | 3.2 | 0.00 | 0.00 | 0.00 | 29 | 1014.0 |
| 20260508012903 | 23 | 237 | 1.6 | 3.2 | 0.00 | 0.00 | 0.00 | 28 | 1014.0 |
| 20260508012802 | 23 | 220 | 1.6 | 3.2 | 0.00 | 0.00 | 0.00 | 29 | 1014.0 |
| 20260508012702 | 23 | 220 | 1.6 | 4.8 | 0.00 | 0.00 | 0.00 | 28 | 1014.0 |
| 20260508012602 | 23 | 220 | 1.6 | 4.8 | 0.00 | 0.00 | 0.00 | 28 | 1014.0 |
| 20260508012307 | 23 | 227 | 1.6 | 6.4 | 0.00 | 0.00 | 0.00 | 28 | 1014.0 |
| 20260508012202 | 23 | 144 | 1.6 | 6.4 | 0.00 | 0.00 | 0.00 | 28 | 1014.0 |
| 20260508012102 | 24 | 232 | 1.6 | 6.4 | 0.00 | 0.00 | 0.00 | 28 | 1014.0 |
| 20260508012003 | 24 | 229 | 1.6 | 6.4 | 0.00 | 0.00 | 0.00 | 28 | 1014.0 |
| 20260508011902 | 24 | 144 | 1.6 | 6.4 | 0.00 | 0.00 | 0.00 | 27 | 1014.0 |
| 20260508011802 | 24 | 183 | 1.6 | 6.4 | 0.00 | 0.00 | 0.00 | 27 | 1014.0 |
| 20260508011702 | 24 | 153 | 1.6 | 6.4 | 0.00 | 0.00 | 0.00 | 27 | 1014.0 |
| 20260508011602 | 24 | 234 | 1.6 | 6.4 | 0.00 | 0.00 | 0.00 | 28 | 1014.0 |
| 20260508011402 | 25 | 247 | 0.0 | 3.2 | 0.00 | 0.00 | 0.00 | 28 | 1014.0 |
| 20260508011202 | 24 | 239 | 1.6 | 6.4 | 0.00 | 0.00 | 0.00 | 27 | 1014.0 |
| 20260508011102 | 24 | 239 | 1.6 | 6.4 | 0.00 | 0.00 | 0.00 | 28 | 1014.1 |
| 20260508011010 | 24 | 239 | 1.6 | 6.4 | 0.00 | 0.00 | 0.00 | 28 | 1014.0 |
| 20260508010908 | 24 | 205 | 1.6 | 6.4 | 0.00 | 0.00 | 0.00 | 29 | 1014.1 |
| 20260508010702 | 24 | 74 | 1.6 | 6.4 | 0.00 | 0.00 | 0.00 | 28 | 1014.1 |
| 20260508010602 | 24 | 74 | 1.6 | 6.4 | 0.00 | 0.00 | 0.00 | 28 | 1014.1 |
| 20260508010502 | 24 | 131 | 1.6 | 6.4 | 0.00 | 0.00 | 0.00 | 28 | 1014.1 |
| 20260508010402 | 25 | 133 | 1.6 | 6.4 | 0.00 | 0.00 | 0.00 | 27 | 1014.1 |
| 20260508010303 | 25 | 156 | 1.6 | 6.4 | 0.00 | 0.00 | 0.00 | 27 | 1014.2 |
| 20260508010202 | 25 | 266 | 1.6 | 6.4 | 0.00 | 0.00 | 0.00 | 28 | 1014.1 |
| 20260508010004 | 25 | 241 | 1.6 | 4.8 | 0.00 | 0.00 | 0.00 | 28 | 1014.2 |
| 20260508005902 | 25 | 242 | 1.6 | 4.8 | 0.00 | 0.00 | 0.00 | 27 | 1014.2 |
| 20260508005802 | 25 | 234 | 1.6 | 4.8 | 0.00 | 0.00 | 0.00 | 29 | 1014.1 |
| 20260508005702 | 25 | 173 | 1.6 | 4.8 | 0.00 | 0.00 | 0.00 | 27 | 1014.1 |
| 20260508005603 | 25 | 213 | 1.6 | 4.8 | 0.00 | 0.00 | 0.00 | 27 | 1014.1 |
| 20260508005402 | 25 | 227 | 1.6 | 4.8 | 0.00 | 0.00 | 0.00 | 28 | 1014.1 |
| 20260508005305 | 25 | 262 | 1.6 | 4.8 | 0.00 | 0.00 | 0.00 | 28 | 1014.1 |
| 20260508005202 | 25 | 242 | 1.6 | 4.8 | 0.00 | 0.00 | 0.00 | 28 | 1014.1 |
| 20260508005102 | 24 | 242 | 1.6 | 6.4 | 0.00 | 0.00 | 0.00 | 28 | 1014.1 |
| 20260508005004 | 24 | 202 | 1.6 | 6.4 | 0.00 | 0.00 | 0.00 | 27 | 1014.1 |
| 20260508004902 | 25 | 144 | 3.2 | 6.4 | 0.00 | 0.00 | 0.00 | 28 | 1014.1 |
| 20260508004802 | 24 | 160 | 3.2 | 11.3 | 0.00 | 0.00 | 0.00 | 28 | 1014.1 |
| 20260508004702 | 25 | 215 | 3.2 | 11.3 | 0.00 | 0.00 | 0.00 | 27 | 1014.2 |
| 20260508004602 | 25 | 146 | 3.2 | 11.3 | 0.00 | 0.00 | 0.00 | 28 | 1014.1 |
| 20260508004402 | 25 | 130 | 3.2 | 11.3 | 0.00 | 0.00 | 0.00 | 28 | 1014.1 |
| 20260508004302 | 25 | 222 | 3.2 | 11.3 | 0.00 | 0.00 | 0.00 | 27 | 1014.1 |
| 20260508004202 | 25 | 109 | 3.2 | 11.3 | 0.00 | 0.00 | 0.00 | 28 | 1014.1 |
| 20260508004003 | 25 | 130 | 3.2 | 11.3 | 0.00 | 0.00 | 0.00 | 27 | 1014.1 |
| 20260508003902 | 25 | 192 | 3.2 | 9.7 | 0.00 | 0.00 | 0.00 | 27 | 1014.2 |
| 20260508003802 | 25 | 159 | 3.2 | 9.7 | 0.00 | 0.00 | 0.00 | 27 | 1014.0 |
| 20260508003702 | 25 | 280 | 3.2 | 9.7 | 0.00 | 0.00 | 0.00 | 27 | 1014.1 |
| 20260508003602 | 25 | 150 | 3.2 | 6.4 | 0.00 | 0.00 | 0.00 | 27 | 1014.1 |
| 20260508003502 | 25 | 171 | 3.2 | 8.0 | 0.00 | 0.00 | 0.00 | 27 | 1014.1 |
| 20260508003302 | 25 | 147 | 1.6 | 8.0 | 0.00 | 0.00 | 0.00 | 27 | 1014.1 |
| 20260508003202 | 25 | 156 | 1.6 | 8.0 | 0.00 | 0.00 | 0.00 | 27 | 1014.0 |
| 20260508003102 | 25 | 174 | 1.6 | 8.0 | 0.00 | 0.00 | 0.00 | 27 | 1014.1 |
| 20260508002903 | 25 | 145 | 1.6 | 11.3 | 0.00 | 0.00 | 0.00 | 28 | 1014.0 |
| 20260508002802 | 25 | 98 | 1.6 | 11.3 | 0.00 | 0.00 | 0.00 | 28 | 1014.0 |
| 20260508002702 | 25 | 145 | 1.6 | 11.3 | 0.00 | 0.00 | 0.00 | 27 | 1014.1 |
| 20260508002602 | 25 | 244 | 1.6 | 11.3 | 0.00 | 0.00 | 0.00 | 29 | 1014.1 |
| 20260508002502 | 25 | 144 | 1.6 | 11.3 | 0.00 | 0.00 | 0.00 | 28 | 1014.0 |
| 20260508002402 | 25 | 202 | 1.6 | 11.3 | 0.00 | 0.00 | 0.00 | 29 | 1014.0 |
| 20260508002306 | 25 | 129 | 1.6 | 11.3 | 0.00 | 0.00 | 0.00 | 28 | 1014.0 |
| 20260508002102 | 25 | 180 | 1.6 | 11.3 | 0.00 | 0.00 | 0.00 | 28 | 1014.0 |
| 20260508002004 | 25 | 69 | 1.6 | 6.4 | 0.00 | 0.00 | 0.00 | 29 | 1014.0 |
| 20260508001902 | 25 | 152 | 1.6 | 6.4 | 0.00 | 0.00 | 0.00 | 28 | 1014.0 |
| 20260508001702 | 25 | 26 | 1.6 | 6.4 | 0.00 | 0.00 | 0.00 | 28 | 1014.0 |
| 20260508001602 | 24 | 136 | 1.6 | 6.4 | 0.00 | 0.00 | 0.00 | 28 | 1014.0 |
| 20260508001503 | 24 | 71 | 1.6 | 6.4 | 0.00 | 0.00 | 0.00 | 28 | 1014.0 |
| 20260508001202 | 24 | 146 | 1.6 | 6.4 | 0.00 | 0.00 | 0.00 | 28 | 1014.1 |
| 20260508001103 | 24 | 228 | 1.6 | 4.8 | 0.00 | 0.00 | 0.00 | 30 | 1014.1 |
| 20260508001004 | 24 | 78 | 1.6 | 4.8 | 0.00 | 0.00 | 0.00 | 29 | 1014.1 |
| 20260508000802 | 24 | 89 | 1.6 | 4.8 | 0.00 | 0.00 | 0.00 | 29 | 1014.1 |
| 20260508000703 | 23 | 73 | 1.6 | 4.8 | 0.00 | 0.00 | 0.00 | 30 | 1014.1 |
| 20260508000603 | 23 | 73 | 1.6 | 4.8 | 0.00 | 0.00 | 0.00 | 28 | 1014.2 |
| 20260508000503 | 23 | 74 | 1.6 | 4.8 | 0.00 | 0.00 | 0.00 | 29 | 1014.2 |
| 20260508000405 | 23 | 73 | 3.2 | 4.8 | 0.00 | 0.00 | 0.00 | 29 | 1014.3 |
| 20260508000305 | 23 | 65 | 3.2 | 6.4 | 0.00 | 0.00 | 0.00 | 29 | 1014.2 |
| 20260508000204 | 23 | 111 | 3.2 | 6.4 | 0.00 | 0.00 | 0.00 | 29 | 1014.2 |